FW0644 Weather Reports


Display with metric or nautical units.
time (UTC)temp
F
wind
direction
speed
MPH
gust
MPH
rain 1hr
in
rain 24hr
in
rain mn
in
humidity
%
barometer
mb
20181117111223 37 199 2.0 3.0 0.00 0.00 0.00 43 1036.0
20181117111123 37 200 2.0 3.0 0.00 0.00 0.00 44 1036.0
20181117111023 37 196 2.0 3.0 0.00 0.00 0.00 44 1036.0
20181117110923 37 178 1.0 2.0 0.00 0.00 0.00 45 1036.0
20181117110824 37 176 1.0 2.0 0.00 0.00 0.00 45 1036.0
20181117110723 37 178 1.0 3.0 0.00 0.00 0.00 45 1036.0
20181117110623 37 180 0.0 3.0 0.00 0.00 0.00 46 1036.0
20181117110523 37 182 2.0 3.0 0.00 0.00 0.00 46 1036.0
20181117110423 37 181 2.0 3.0 0.00 0.00 0.00 46 1036.0
20181117110324 37 181 2.0 3.0 0.00 0.00 0.00 46 1036.0
20181117110224 37 180 1.0 3.0 0.00 0.00 0.00 46 1036.0
20181117110123 37 180 2.0 3.0 0.00 0.00 0.00 46 1037.0
20181117110023 37 182 2.0 3.0 0.00 0.00 0.00 46 1037.0
20181117105923 37 185 2.0 3.0 0.00 0.00 0.00 47 1037.0
20181117105823 37 191 2.0 3.0 0.00 0.00 0.00 47 1037.0
20181117105724 37 190 2.0 3.0 0.00 0.00 0.00 47 1037.0
20181117105624 37 186 2.0 3.0 0.00 0.00 0.00 47 1037.0
20181117105523 37 187 1.0 3.0 0.00 0.00 0.00 47 1037.0
20181117105423 37 188 2.0 3.0 0.00 0.00 0.00 47 1037.0
20181117105323 37 187 2.0 4.0 0.00 0.00 0.00 47 1037.0
20181117105223 37 185 1.0 4.0 0.00 0.00 0.00 47 1037.0
20181117105124 37 184 2.0 4.0 0.00 0.00 0.00 47 1037.0
20181117105024 37 183 2.0 4.0 0.00 0.00 0.00 47 1037.0
20181117104923 37 182 2.0 4.0 0.00 0.00 0.00 47 1037.0
20181117104823 37 178 2.0 4.0 0.00 0.00 0.00 46 1037.0
20181117104723 37 177 2.0 4.0 0.00 0.00 0.00 46 1037.0
20181117104623 37 179 1.0 4.0 0.00 0.00 0.00 46 1037.0
20181117104524 37 179 1.0 4.0 0.00 0.00 0.00 46 1037.0
20181117104424 37 179 2.0 4.0 0.00 0.00 0.00 46 1037.0
20181117104323 37 180 2.0 4.0 0.00 0.00 0.00 46 1037.0
20181117104223 37 181 2.0 4.0 0.00 0.00 0.00 46 1037.0
20181117104124 37 182 2.0 4.0 0.00 0.00 0.00 46 1037.0
20181117104024 37 182 2.0 4.0 0.00 0.00 0.00 46 1037.0
20181117103924 36 187 2.0 4.0 0.00 0.00 0.00 46 1037.0
20181117103823 36 189 2.0 3.0 0.00 0.00 0.00 45 1037.0
20181117103723 36 193 2.0 3.0 0.00 0.00 0.00 45 1037.0
20181117103623 36 192 2.0 3.0 0.00 0.00 0.00 45 1037.0
20181117103523 37 191 2.0 3.0 0.00 0.00 0.00 45 1037.0
20181117103423 37 194 2.0 3.0 0.00 0.00 0.00 45 1037.0
20181117103324 37 198 2.0 3.0 0.00 0.00 0.00 45 1037.0
20181117103223 37 196 2.0 3.0 0.00 0.00 0.00 45 1037.0
20181117103123 37 189 1.0 3.0 0.00 0.00 0.00 46 1037.0
20181117103023 37 184 1.0 3.0 0.00 0.00 0.00 45 1037.0
20181117102923 37 177 1.0 3.0 0.00 0.00 0.00 45 1037.0
20181117102823 37 172 1.0 3.0 0.00 0.00 0.00 45 1037.0
20181117102724 36 172 1.0 3.0 0.00 0.00 0.00 45 1037.0
20181117102623 36 173 2.0 3.0 0.00 0.00 0.00 45 1037.0
20181117102523 36 176 1.0 3.0 0.00 0.00 0.00 45 1037.0
20181117102423 36 174 0.0 3.0 0.00 0.00 0.00 45 1037.0
20181117102323 36 176 1.0 4.0 0.00 0.00 0.00 46 1037.0
20181117102223 36 175 1.0 4.0 0.00 0.00 0.00 46 1037.0
20181117102124 36 177 2.0 4.0 0.00 0.00 0.00 45 1037.0
20181117102023 36 177 2.0 4.0 0.00 0.00 0.00 45 1037.0
20181117101923 36 180 0.0 4.0 0.00 0.00 0.00 46 1037.0
20181117101823 36 183 2.0 4.0 0.00 0.00 0.00 46 1037.0
20181117101723 36 184 2.0 4.0 0.00 0.00 0.00 45 1037.0
20181117101624 36 185 2.0 4.0 0.00 0.00 0.00 45 1037.0
20181117101524 36 184 2.0 4.0 0.00 0.00 0.00 45 1037.0
20181117101423 36 184 2.0 4.0 0.00 0.00 0.00 45 1037.0
20181117101323 36 184 2.0 4.0 0.00 0.00 0.00 45 1037.0
20181117101223 36 188 2.0 4.0 0.00 0.00 0.00 45 1037.0
20181117101123 36 188 3.0 4.0 0.00 0.00 0.00 45 1037.0
20181117101024 36 188 2.0 4.0 0.00 0.00 0.00 45 1037.0
20181117100924 36 189 1.0 4.0 0.00 0.00 0.00 45 1037.0
20181117100823 36 185 2.0 4.0 0.00 0.00 0.00 45 1037.0
20181117100723 36 187 3.0 4.0 0.00 0.00 0.00 45 1037.0
20181117100623 36 186 3.0 4.0 0.00 0.00 0.00 45 1037.0
20181117100523 36 179 0.0 4.0 0.00 0.00 0.00 45 1037.0
20181117100423 36 179 2.0 4.0 0.00 0.00 0.00 45 1037.0
20181117100324 36 180 3.0 4.0 0.00 0.00 0.00 45 1037.0
20181117100223 36 178 2.0 4.0 0.00 0.00 0.00 46 1037.0
20181117100123 36 177 3.0 4.0 0.00 0.00 0.00 46 1038.0
20181117100023 36 177 2.0 4.0 0.00 0.00 0.00 46 1038.0
20181117095923 36 176 2.0 4.0 0.00 0.00 0.00 46 1038.0
20181117095824 36 178 2.0 4.0 0.00 0.00 0.00 46 1038.0
20181117095723 36 178 3.0 4.0 0.00 0.00 0.00 46 1038.0
20181117095623 36 179 3.0 4.0 0.00 0.00 0.00 46 1038.0
20181117095523 36 183 2.0 4.0 0.00 0.00 0.00 46 1038.0
20181117095423 36 183 3.0 4.0 0.00 0.00 0.00 46 1038.0
20181117095323 35 182 3.0 4.0 0.00 0.00 0.00 46 1038.0
20181117095224 35 183 2.0 4.0 0.00 0.00 0.00 46 1038.0
20181117095123 35 182 2.0 4.0 0.00 0.00 0.00 46 1038.0
20181117095023 35 180 2.0 4.0 0.00 0.00 0.00 46 1038.0
20181117094923 35 178 2.0 4.0 0.00 0.00 0.00 46 1038.0
20181117094823 36 176 1.0 4.0 0.00 0.00 0.00 46 1038.0
20181117094724 35 175 2.0 4.0 0.00 0.00 0.00 46 1038.0
20181117094624 35 175 2.0 4.0 0.00 0.00 0.00 46 1038.0
20181117094523 35 174 2.0 4.0 0.00 0.00 0.00 46 1038.0
20181117094423 36 174 3.0 4.0 0.00 0.00 0.00 46 1038.0
20181117094323 36 176 2.0 4.0 0.00 0.00 0.00 46 1038.0
20181117094224 35 176 3.0 4.0 0.00 0.00 0.00 46 1038.0
20181117094124 35 177 2.0 4.0 0.00 0.00 0.00 46 1038.0
20181117094024 35 180 2.0 4.0 0.00 0.00 0.00 46 1038.0
20181117093923 35 183 2.0 4.0 0.00 0.00 0.00 46 1038.0
20181117093823 35 185 2.0 4.0 0.00 0.00 0.00 45 1038.0
20181117093723 35 185 1.0 5.0 0.00 0.00 0.00 46 1038.0
20181117093623 35 187 2.0 5.0 0.00 0.00 0.00 46 1038.0
20181117093523 35 187 2.0 5.0 0.00 0.00 0.00 46 1038.0
20181117093424 35 185 2.0 5.0 0.00 0.00 0.00 45 1038.0
20181117093323 35 185 3.0 5.0 0.00 0.00 0.00 46 1038.0
20181117093223 35 185 1.0 5.0 0.00 0.00 0.00 46 1038.0
20181117093123 35 184 1.0 5.0 0.00 0.00 0.00 46 1038.0
20181117093023 35 182 1.0 5.0 0.00 0.00 0.00 46 1038.0
20181117092924 35 179 2.0 5.0 0.00 0.00 0.00 45 1038.0
20181117092824 35 180 3.0 5.0 0.00 0.00 0.00 45 1038.0
20181117092723 35 182 1.0 4.0 0.00 0.00 0.00 45 1038.0
20181117092623 35 178 1.0 4.0 0.00 0.00 0.00 46 1038.0
20181117092523 35 183 2.0 4.0 0.00 0.00 0.00 45 1038.0
20181117092423 35 185 2.0 4.0 0.00 0.00 0.00 45 1038.0
20181117092324 35 183 0.0 4.0 0.00 0.00 0.00 46 1038.0
20181117092223 34 184 1.0 4.0 0.00 0.00 0.00 46 1038.0
20181117092123 34 182 1.0 4.0 0.00 0.00 0.00 46 1038.0
20181117092023 35 182 2.0 4.0 0.00 0.00 0.00 46 1038.0
20181117091923 35 183 3.0 4.0 0.00 0.00 0.00 46 1038.0
20181117091823 34 182 3.0 4.0 0.00 0.00 0.00 45 1038.0
20181117091724 35 180 3.0 6.0 0.00 0.00 0.00 45 1037.0
20181117091623 35 177 3.0 6.0 0.00 0.00 0.00 45 1037.0
20181117091523 34 170 4.0 6.0 0.00 0.00 0.00 46 1037.0
20181117091423 34 168 2.0 6.0 0.00 0.00 0.00 46 1037.0
20181117091323 34 172 1.0 6.0 0.00 0.00 0.00 46 1037.0
20181117091223 34 171 2.0 6.0 0.00 0.00 0.00 46 1037.0
20181117091124 34 171 2.0 6.0 0.00 0.00 0.00 46 1037.0
20181117091023 34 170 1.0 6.0 0.00 0.00 0.00 46 1037.0
20181117090923 35 171 3.0 6.0 0.00 0.00 0.00 46 1037.0
20181117090823 35 172 3.0 6.0 0.00 0.00 0.00 46 1037.0
20181117090723 35 174 5.0 6.0 0.00 0.00 0.00 46 1037.0
20181117090624 35 177 2.0 5.0 0.00 0.00 0.00 46 1037.0
20181117090524 35 178 3.0 6.0 0.00 0.00 0.00 46 1037.0
20181117090423 35 177 4.0 6.0 0.00 0.00 0.00 47 1037.0
20181117090323 35 181 1.0 6.0 0.00 0.00 0.00 46 1037.0
20181117090223 35 181 2.0 6.0 0.00 0.00 0.00 48 1037.0
20181117090123 35 185 2.0 6.0 0.00 0.00 0.00 48 1038.0
20181117090024 35 187 2.0 6.0 0.00 0.00 0.00 48 1038.0
20181117085924 35 186 1.0 6.0 0.00 0.00 0.00 49 1038.0
20181117085823 34 187 3.0 6.0 0.00 0.00 0.00 48 1038.0
20181117085723 34 185 4.0 6.0 0.00 0.00 0.00 48 1038.0
20181117085623 34 185 4.0 6.0 0.00 0.00 0.00 48 1038.0
20181117085524 35 190 3.0 5.0 0.00 0.00 0.00 49 1038.0
20181117085424 34 192 3.0 5.0 0.00 0.00 0.00 49 1038.0
20181117085324 35 188 3.0 5.0 0.00 0.00 0.00 49 1038.0
20181117085223 35 181 3.0 4.0 0.00 0.00 0.00 49 1038.0
20181117085123 35 181 3.0 4.0 0.00 0.00 0.00 49 1038.0
20181117085023 35 176 1.0 4.0 0.00 0.00 0.00 49 1038.0
20181117084923 35 176 1.0 4.0 0.00 0.00 0.00 49 1038.0
20181117084824 35 175 1.0 4.0 0.00 0.00 0.00 49 1038.0
20181117084723 35 176 2.0 4.0 0.00 0.00 0.00 49 1038.0
20181117084623 35 177 2.0 4.0 0.00 0.00 0.00 50 1038.0
20181117084523 34 174 3.0 4.0 0.00 0.00 0.00 49 1038.0
20181117084423 34 175 1.0 4.0 0.00 0.00 0.00 50 1038.0
20181117084324 34 175 3.0 4.0 0.00 0.00 0.00 49 1038.0
20181117084224 34 171 3.0 4.0 0.00 0.00 0.00 49 1038.0
20181117084123 34 175 2.0 4.0 0.00 0.00 0.00 49 1038.0
20181117084023 34 176 3.0 4.0 0.00 0.00 0.00 49 1038.0
20181117083923 35 175 3.0 5.0 0.00 0.00 0.00 49 1038.0
20181117083823 35 174 3.0 5.0 0.00 0.00 0.00 49 1038.0
20181117083723 35 174 3.0 5.0 0.00 0.00 0.00 49 1038.0
20181117083624 34 173 3.0 5.0 0.00 0.00 0.00 49 1038.0
20181117083523 34 175 3.0 5.0 0.00 0.00 0.00 49 1038.0
20181117083423 34 178 3.0 5.0 0.00 0.00 0.00 49 1038.0
20181117083323 34 176 2.0 5.0 0.00 0.00 0.00 49 1038.0
20181117083223 35 175 1.0 5.0 0.00 0.00 0.00 49 1038.0
20181117083123 35 172 3.0 5.0 0.00 0.00 0.00 49 1038.0
20181117083024 34 171 2.0 5.0 0.00 0.00 0.00 49 1038.0
20181117082923 34 173 3.0 5.0 0.00 0.00 0.00 49 1038.0
20181117082823 34 173 2.0 5.0 0.00 0.00 0.00 49 1038.0
20181117082723 34 169 1.0 5.0 0.00 0.00 0.00 50 1038.0
20181117082623 34 171 2.0 5.0 0.00 0.00 0.00 50 1038.0
20181117082524 34 169 1.0 5.0 0.00 0.00 0.00 50 1038.0
20181117082424 34 168 4.0 5.0 0.00 0.00 0.00 50 1038.0
20181117082323 34 168 3.0 5.0 0.00 0.00 0.00 50 1038.0
20181117082223 33 174 3.0 4.0 0.00 0.00 0.00 50 1038.0
20181117082123 33 178 3.0 4.0 0.00 0.00 0.00 50 1038.0
20181117082023 33 184 3.0 4.0 0.00 0.00 0.00 50 1038.0
20181117081924 33 184 1.0 4.0 0.00 0.00 0.00 50 1038.0
20181117081824 33 186 1.0 4.0 0.00 0.00 0.00 50 1038.0
20181117081723 33 187 3.0 4.0 0.00 0.00 0.00 49 1038.0
20181117081623 33 188 2.0 4.0 0.00 0.00 0.00 50 1039.0
20181117081523 33 188 2.0 4.0 0.00 0.00 0.00 50 1039.0
20181117081423 33 185 1.0 4.0 0.00 0.00 0.00 50 1039.0
20181117081324 33 182 1.0 5.0 0.00 0.00 0.00 49 1039.0
20181117081224 33 183 2.0 5.0 0.00 0.00 0.00 49 1039.0
20181117081123 34 184 2.0 5.0 0.00 0.00 0.00 49 1039.0
20181117081023 34 182 2.0 6.0 0.00 0.00 0.00 49 1039.0
20181117080923 33 181 4.0 6.0 0.00 0.00 0.00 49 1039.0
20181117080823 33 181 3.0 6.0 0.00 0.00 0.00 49 1039.0
20181117080724 33 181 0.0 6.0 0.00 0.00 0.00 49 1039.0
20181117080623 33 179 2.0 6.0 0.00 0.00 0.00 49 1039.0
20181117080523 33 179 4.0 6.0 0.00 0.00 0.00 49 1039.0
20181117080423 33 180 4.0 6.0 0.00 0.00 0.00 49 1039.0
20181117080323 33 180 4.0 6.0 0.00 0.00 0.00 49 1039.0
20181117080223 33 179 3.0 6.0 0.00 0.00 0.00 49 1039.0
20181117080124 33 177 4.0 6.0 0.00 0.00 0.00 49 1039.0
20181117080023 33 176 3.0 6.0 0.00 0.00 0.00 49 1039.0
20181117075923 33 175 2.0 4.0 0.00 0.00 0.00 49 1039.0
20181117075823 33 171 3.0 4.0 0.00 0.00 0.00 49 1039.0
20181117075723 33 169 3.0 4.0 0.00 0.00 0.00 50 1039.0
20181117075624 33 166 3.0 4.0 0.00 0.00 0.00 50 1039.0
20181117075524 33 165 1.0 4.0 0.00 0.00 0.00 50 1039.0
20181117075424 32 165 2.0 4.0 0.00 0.00 0.00 50 1039.0
20181117075323 32 168 2.0 4.0 0.00 0.00 0.00 50 1039.0
20181117075223 32 166 3.0 4.0 0.00 0.00 0.00 51 1039.0
20181117075123 32 166 3.0 4.0 0.00 0.00 0.00 51 1039.0
20181117075024 32 163 3.0 4.0 0.00 0.00 0.00 51 1039.0
20181117074924 32 162 4.0 4.0 0.00 0.00 0.00 51 1039.0
20181117074823 32 166 3.0 4.0 0.00 0.00 0.00 51 1039.0
20181117074724 32 163 3.0 4.0 0.00 0.00 0.00 51 1039.0
20181117074623 32 169 3.0 4.0 0.00 0.00 0.00 51 1039.0
20181117074523 32 176 3.0 3.0 0.00 0.00 0.00 51 1039.0
20181117074423 32 180 2.0 3.0 0.00 0.00 0.00 51 1039.0
20181117074324 32 178 1.0 3.0 0.00 0.00 0.00 51 1039.0
20181117074223 32 182 1.0 3.0 0.00 0.00 0.00 51 1039.0
20181117074123 32 180 2.0 3.0 0.00 0.00 0.00 51 1039.0
20181117074023 32 182 2.0 3.0 0.00 0.00 0.00 51 1039.0
20181117073923 32 183 2.0 3.0 0.00 0.00 0.00 51 1039.0
20181117073824 32 181 2.0 3.0 0.00 0.00 0.00 51 1039.0
20181117073723 32 187 2.0 3.0 0.00 0.00 0.00 51 1039.0
20181117073623 32 188 2.0 3.0 0.00 0.00 0.00 52 1039.0
20181117073523 32 186 2.0 3.0 0.00 0.00 0.00 52 1039.0
20181117073423 32 184 1.0 3.0 0.00 0.00 0.00 52 1039.0
20181117073323 32 184 1.0 3.0 0.00 0.00 0.00 52 1039.0
20181117073224 32 184 1.0 3.0 0.00 0.00 0.00 52 1039.0
20181117073123 32 184 3.0 3.0 0.00 0.00 0.00 53 1040.0
20181117073023 32 186 3.0 3.0 0.00 0.00 0.00 53 1040.0
20181117072923 32 186 1.0 4.0 0.00 0.00 0.00 54 1040.0
20181117072823 32 185 2.0 4.0 0.00 0.00 0.00 54 1040.0
20181117072723 31 183 2.0 4.0 0.00 0.00 0.00 54 1040.0
20181117072624 31 182 2.0 4.0 0.00 0.00 0.00 54 1040.0
20181117072523 31 182 2.0 4.0 0.00 0.00 0.00 54 1040.0
20181117072423 31 183 2.0 4.0 0.00 0.00 0.00 53 1040.0
20181117072323 31 183 2.0 4.0 0.00 0.00 0.00 53 1040.0
20181117072223 31 183 2.0 4.0 0.00 0.00 0.00 53 1040.0
20181117072123 31 185 1.0 4.0 0.00 0.00 0.00 54 1040.0
20181117072024 31 184 3.0 4.0 0.00 0.00 0.00 54 1040.0
20181117071923 31 185 2.0 4.0 0.00 0.00 0.00 54 1040.0
20181117071823 31 186 2.0 4.0 0.00 0.00 0.00 53 1040.0
20181117071723 31 187 3.0 4.0 0.00 0.00 0.00 53 1040.0
20181117071624 31 187 2.0 4.0 0.00 0.00 0.00 54 1040.0
20181117071523 31 187 3.0 4.0 0.00 0.00 0.00 54 1040.0
20181117071424 30 184 2.0 4.0 0.00 0.00 0.00 53 1040.0
20181117071323 31 182 2.0 4.0 0.00 0.00 0.00 53 1040.0
20181117071223 31 182 1.0 4.0 0.00 0.00 0.00 53 1040.0
20181117071123 31 180 1.0 4.0 0.00 0.00 0.00 54 1040.0
20181117071023 31 179 1.0 4.0 0.00 0.00 0.00 54 1040.0
20181117070924 31 179 1.0 4.0 0.00 0.00 0.00 54 1040.0
20181117070824 30 177 1.0 4.0 0.00 0.00 0.00 54 1040.0
20181117070723 30 174 2.0 4.0 0.00 0.00 0.00 54 1040.0
20181117070623 30 174 1.0 4.0 0.00 0.00 0.00 54 1040.0
20181117070523 30 171 3.0 4.0 0.00 0.00 0.00 54 1040.0
20181117070423 30 170 2.0 4.0 0.00 0.00 0.00 54 1040.0
20181117070324 30 167 3.0 4.0 0.00 0.00 0.00 54 1040.0
20181117070224 30 166 3.0 4.0 0.00 0.00 0.00 54 1040.0
20181117070123 30 164 3.0 4.0 0.00 0.00 0.00 54 1040.0
20181117070023 30 160 3.0 4.0 0.00 0.00 0.00 53 1040.0
20181117065923 30 156 3.0 4.0 0.00 0.00 0.00 53 1040.0
20181117065823 30 152 3.0 4.0 0.00 0.00 0.00 53 1040.0
20181117065724 30 155 3.0 4.0 0.00 0.00 0.00 53 1040.0
20181117065623 30 158 2.0 3.0 0.00 0.00 0.00 53 1040.0
20181117065523 30 164 3.0 4.0 0.00 0.00 0.00 53 1040.0
20181117065423 30 166 1.0 4.0 0.00 0.00 0.00 53 1040.0
20181117065323 31 176 2.0 4.0 0.00 0.00 0.00 53 1040.0
20181117065223 30 176 1.0 4.0 0.00 0.00 0.00 53 1040.0
20181117065124 30 182 0.0 4.0 0.00 0.00 0.00 52 1040.0
20181117065023 30 182 1.0 4.0 0.00 0.00 0.00 52 1040.0
20181117064923 30 183 1.0 4.0 0.00 0.00 0.00 52 1040.0
20181117064823 30 185 1.0 4.0 0.00 0.00 0.00 52 1040.0
20181117064723 30 184 3.0 4.0 0.00 0.00 0.00 51 1040.0
20181117064623 30 181 3.0 4.0 0.00 0.00 0.00 50 1039.0
20181117064524 30 182 3.0 4.0 0.00 0.00 0.00 50 1039.0
20181117064423 30 183 2.0 4.0 0.00 0.00 0.00 50 1039.0
20181117064323 30 181 2.0 4.0 0.00 0.00 0.00 49 1039.0
20181117064223 30 181 3.0 4.0 0.00 0.00 0.00 48 1039.0
20181117064126 30 179 2.0 4.0 0.00 0.00 0.00 48 1039.0
20181117064023 30 177 2.0 4.0 0.00 0.00 0.00 47 1039.0
20181117063923 30 179 2.0 4.0 0.00 0.00 0.00 47 1039.0
20181117063823 30 178 3.0 4.0 0.00 0.00 0.00 46 1039.0
20181117063723 30 178 3.0 4.0 0.00 0.00 0.00 45 1039.0
20181117063623 30 178 1.0 4.0 0.00 0.00 0.00 45 1039.0
20181117063524 30 178 2.0 4.0 0.00 0.00 0.00 45 1039.0
20181117063423 30 178 2.0 4.0 0.00 0.00 0.00 44 1039.0
20181117063324 30 179 2.0 4.0 0.00 0.00 0.00 44 1039.0
20181117063223 30 178 1.0 4.0 0.00 0.00 0.00 44 1039.0
20181117063123 30 178 2.0 4.0 0.00 0.00 0.00 43 1040.0
20181117063023 30 179 1.0 4.0 0.00 0.00 0.00 43 1040.0
20181117062923 29 180 2.0 4.0 0.00 0.00 0.00 42 1040.0
20181117062823 29 180 2.0 4.0 0.00 0.00 0.00 42 1040.0
20181117062724 29 180 2.0 4.0 0.00 0.00 0.00 42 1040.0
20181117062623 29 180 3.0 4.0 0.00 0.00 0.00 42 1040.0
20181117062523 29 180 2.0 3.0 0.00 0.00 0.00 41 1040.0
20181117062423 30 180 2.0 3.0 0.00 0.00 0.00 41 1040.0
20181117062323 29 180 1.0 2.0 0.00 0.00 0.00 41 1040.0
20181117062224 29 180 1.0 2.0 0.00 0.00 0.00 41 1040.0
20181117062123 29 180 1.0 2.0 0.00 0.00 0.00 41 1040.0
20181117062023 29 180 1.0 3.0 0.00 0.00 0.00 41 1040.0
20181117061923 29 180 2.0 3.0 0.00 0.00 0.00 41 1040.0
20181117061823 29 180 1.0 3.0 0.00 0.00 0.00 41 1040.0
20181117061724 29 180 1.0 3.0 0.00 0.00 0.00 41 1040.0
20181117061624 29 180 2.0 3.0 0.00 0.00 0.00 41 1040.0
20181117061523 29 177 1.0 3.0 0.00 0.00 0.00 41 1040.0
20181117061423 29 173 2.0 3.0 0.00 0.00 0.00 41 1040.0
20181117061323 28 168 2.0 3.0 0.00 0.00 0.00 41 1040.0
20181117061223 28 163 2.0 3.0 0.00 0.00 0.00 41 1040.0
20181117061123 28 154 2.0 3.0 0.00 0.00 0.00 41 1040.0
20181117061024 28 142 2.0 2.0 0.00 0.00 0.00 42 1040.0
20181117060923 28 129 2.0 2.0 0.00 0.00 0.00 42 1040.0
20181117060823 28 113 2.0 2.0 0.00 0.00 0.00 42 1040.0
20181117060723 28 99 1.0 2.0 0.00 0.00 0.00 42 1040.0
20181117060623 28 91 1.0 2.0 0.00 0.00 0.00 42 1040.0
20181117060524 28 90 1.0 2.0 0.00 0.00 0.00 42 1040.0
20181117060424 28 90 1.0 2.0 0.00 0.00 0.00 42 1040.0
20181117060323 28 90 0.0 2.0 0.00 0.00 0.00 42 1040.0
20181117060223 28 90 1.0 2.0 0.00 0.00 0.00 42 1040.0
20181117060123 28 90 1.0 1.0 0.00 0.00 0.00 42 1040.0
20181117060023 28 90 1.0 1.0 0.00 0.00 0.00 42 1040.0
20181117055923 28 90 1.0 1.0 0.00 0.00 0.00 42 1040.0
20181117055824 28 90 0.0 1.0 0.00 0.00 0.00 42 1040.0
20181117055723 28 90 0.0 1.0 0.00 0.00 0.00 42 1040.0
20181117055623 27 90 0.0 1.0 0.00 0.00 0.00 42 1040.0
20181117055523 28 90 0.0 1.0 0.00 0.00 0.00 42 1040.0
20181117055423 28 0 0.0 0.0 0.00 0.00 0.00 42 1040.0
20181117055324 28 0 0.0 0.0 0.00 0.00 0.00 41 1040.0
20181117055224 27 0 0.0 0.0 0.00 0.00 0.00 41 1040.0
20181117055123 27 0 0.0 0.0 0.00 0.00 0.00 41 1040.0
20181117055023 27 0 0.0 0.0 0.00 0.00 0.00 41 1040.0
20181117054923 27 0 0.0 0.0 0.00 0.00 0.00 41 1040.0
20181117054823 27 90 0.0 1.0 0.00 0.00 0.00 42 1040.0
20181117054723 27 90 0.0 1.0 0.00 0.00 0.00 42 1040.0
20181117054623 27 90 0.0 1.0 0.00 0.00 0.00 42 1040.0
20181117054523 27 90 0.0 1.0 0.00 0.00 0.00 42 1040.0
20181117054423 27 90 0.0 1.0 0.00 0.00 0.00 42 1040.0
20181117054323 27 78 0.0 1.0 0.00 0.00 0.00 42 1040.0
20181117054223 27 74 0.0 1.0 0.00 0.00 0.00 42 1040.0
20181117054124 27 74 0.0 1.0 0.00 0.00 0.00 42 1040.0
20181117054023 27 74 0.0 1.0 0.00 0.00 0.00 42 1040.0
20181117053923 27 74 0.0 1.0 0.00 0.00 0.00 42 1040.0
20181117053823 27 74 0.0 1.0 0.00 0.00 0.00 42 1040.0
20181117053723 27 58 0.0 1.0 0.00 0.00 0.00 42 1040.0
20181117053623 27 45 0.0 1.0 0.00 0.00 0.00 42 1040.0
20181117053525 27 45 0.0 1.0 0.00 0.00 0.00 42 1040.0
20181117053423 27 45 0.0 1.0 0.00 0.00 0.00 42 1040.0
20181117053323 27 45 0.0 1.0 0.00 0.00 0.00 42 1040.0
20181117053223 27 45 0.0 1.0 0.00 0.00 0.00 42 1040.0
20181117053123 26 45 0.0 1.0 0.00 0.00 0.00 42 1040.0
20181117053023 26 45 0.0 2.0 0.00 0.00 0.00 42 1040.0
20181117052924 26 45 0.0 2.0 0.00 0.00 0.00 42 1040.0
20181117052823 26 45 0.0 2.0 0.00 0.00 0.00 42 1040.0
20181117052723 26 41 0.0 2.0 0.00 0.00 0.00 42 1040.0
20181117052623 26 37 0.0 2.0 0.00 0.00 0.00 42 1040.0
20181117052523 26 35 0.0 2.0 0.00 0.00 0.00 42 1040.0
20181117052423 26 32 0.0 2.0 0.00 0.00 0.00 41 1040.0
20181117052324 27 31 0.0 2.0 0.00 0.00 0.00 41 1040.0
20181117052223 27 30 1.0 2.0 0.00 0.00 0.00 41 1040.0
20181117052123 27 27 1.0 2.0 0.00 0.00 0.00 42 1040.0
20181117052023 26 23 1.0 2.0 0.00 0.00 0.00 42 1040.0
20181117051923 26 16 1.0 2.0 0.00 0.00 0.00 42 1040.0
20181117051823 26 3 1.0 2.0 0.00 0.00 0.00 42 1040.0
20181117051724 26 360 1.0 1.0 0.00 0.00 0.00 42 1040.0
20181117051623 26 360 0.0 1.0 0.00 0.00 0.00 42 1040.0
20181117051523 26 360 1.0 1.0 0.00 0.00 0.00 43 1040.0
20181117051423 26 360 0.0 1.0 0.00 0.00 0.00 43 1040.0
20181117051323 26 360 0.0 1.0 0.00 0.00 0.00 43 1040.0
20181117051223 25 360 0.0 1.0 0.00 0.00 0.00 44 1040.0
20181117051124 25 360 0.0 1.0 0.00 0.00 0.00 44 1040.0
20181117051023 25 360 0.0 1.0 0.00 0.00 0.00 44 1040.0
20181117050923 25 360 0.0 1.0 0.00 0.00 0.00 44 1040.0
20181117050823 25 360 0.0 1.0 0.00 0.00 0.00 44 1040.0
20181117050723 25 360 0.0 1.0 0.00 0.00 0.00 44 1040.0
20181117050624 25 360 0.0 1.0 0.00 0.00 0.00 44 1040.0
20181117050523 25 360 0.0 1.0 0.00 0.00 0.00 44 1040.0
20181117050423 25 360 0.0 1.0 0.00 0.00 0.00 44 1040.0
20181117050323 25 360 0.0 1.0 0.00 0.00 0.00 44 1040.0
20181117050223 25 360 0.0 2.0 0.00 0.00 0.00 44 1040.0
20181117050123 25 360 0.0 2.0 0.00 0.00 0.00 44 1040.0
20181117050024 25 360 0.0 2.0 0.00 0.00 0.00 44 1040.0
20181117045923 25 360 0.0 2.0 0.00 0.00 0.00 44 1040.0
20181117045823 25 2 1.0 2.0 0.00 0.00 0.00 45 1040.0
20181117045723 25 3 0.0 3.0 0.00 0.00 0.00 45 1040.0
20181117045623 25 3 0.0 3.0 0.00 0.00 0.00 45 1040.0
20181117045523 25 3 1.0 3.0 0.00 0.00 0.00 45 1040.0
20181117045424 24 3 1.0 3.0 0.00 0.00 0.00 46 1040.0
20181117045323 24 2 1.0 3.0 0.00 0.00 0.00 46 1040.0
20181117045223 24 2 1.0 3.0 0.00 0.00 0.00 46 1040.0
20181117045123 24 2 2.0 3.0 0.00 0.00 0.00 46 1040.0
20181117045023 24 2 1.0 3.0 0.00 0.00 0.00 46 1040.0
20181117044923 24 2 2.0 3.0 0.00 0.00 0.00 46 1040.0
20181117044824 24 1 2.0 3.0 0.00 0.00 0.00 46 1040.0
20181117044723 24 360 2.0 3.0 0.00 0.00 0.00 46 1040.0
20181117044623 24 360 3.0 3.0 0.00 0.00 0.00 46 1040.0
20181117044523 24 360 3.0 3.0 0.00 0.00 0.00 46 1040.0
20181117044423 24 360 3.0 3.0 0.00 0.00 0.00 46 1040.0
20181117044323 24 360 3.0 3.0 0.00 0.00 0.00 46 1040.0
20181117044224 24 360 2.0 3.0 0.00 0.00 0.00 46 1040.0
20181117044123 24 360 2.0 3.0 0.00 0.00 0.00 46 1040.0
20181117044023 24 360 2.0 3.0 0.00 0.00 0.00 46 1040.0
20181117043923 24 360 2.0 3.0 0.00 0.00 0.00 46 1040.0
20181117043823 24 360 2.0 3.0 0.00 0.00 0.00 46 1040.0
20181117043723 24 360 2.0 3.0 0.00 0.00 0.00 46 1040.0
20181117043624 24 355 2.0 3.0 0.00 0.00 0.00 47 1040.0
20181117043523 24 350 2.0 3.0 0.00 0.00 0.00 47 1040.0
20181117043423 24 346 2.0 3.0 0.00 0.00 0.00 47 1040.0
20181117043323 24 341 2.0 3.0 0.00 0.00 0.00 47 1040.0
20181117043223 24 338 1.0 3.0 0.00 0.00 0.00 47 1040.0
20181117043123 24 335 2.0 3.0 0.00 0.00 0.00 47 1040.0
20181117043023 24 334 2.0 3.0 0.00 0.00 0.00 47 1040.0
20181117042923 24 332 2.0 3.0 0.00 0.00 0.00 47 1040.0
20181117042823 24 330 2.0 3.0 0.00 0.00 0.00 47 1040.0
20181117042723 24 328 2.0 3.0 0.00 0.00 0.00 47 1040.0
20181117042623 24 334 2.0 3.0 0.00 0.00 0.00 47 1040.0
20181117042524 24 342 2.0 3.0 0.00 0.00 0.00 47 1040.0
20181117042422 24 348 2.0 3.0 0.00 0.00 0.00 47 1040.0
20181117042323 24 353 2.0 3.0 0.00 0.00 0.00 47 1040.0
20181117042223 23 359 1.0 3.0 0.00 0.00 0.00 46 1040.0
20181117042123 23 2 1.0 3.0 0.00 0.00 0.00 46 1040.0
20181117042023 23 4 1.0 3.0 0.00 0.00 0.00 46 1040.0
20181117041923 24 3 2.0 4.0 0.00 0.00 0.00 46 1040.0
20181117041823 24 4 2.0 4.0 0.00 0.00 0.00 46 1040.0
20181117041723 24 4 2.0 4.0 0.00 0.00 0.00 46 1040.0
20181117041623 24 3 2.0 4.0 0.00 0.00 0.00 46 1041.0
20181117041523 24 2 2.0 4.0 0.00 0.00 0.00 46 1041.0
20181117041423 24 3 3.0 4.0 0.00 0.00 0.00 47 1041.0
20181117041324 24 2 2.0 4.0 0.00 0.00 0.00 47 1041.0
20181117041223 24 2 3.0 4.0 0.00 0.00 0.00 46 1041.0
20181117041123 24 360 3.0 4.0 0.00 0.00 0.00 46 1041.0
20181117041023 24 358 3.0 4.0 0.00 0.00 0.00 46 1041.0
20181117040923 24 356 3.0 4.0 0.00 0.00 0.00 46 1041.0
20181117040824 24 353 3.0 4.0 0.00 0.00 0.00 46 1041.0
20181117040724 24 351 3.0 4.0 0.00 0.00 0.00 45 1041.0
20181117040623 24 349 3.0 4.0 0.00 0.00 0.00 45 1041.0
20181117040523 24 347 2.0 3.0 0.00 0.00 0.00 45 1041.0
20181117040423 24 344 3.0 3.0 0.00 0.00 0.00 45 1041.0
20181117040323 24 341 2.0 3.0 0.00 0.00 0.00 45 1041.0
20181117040223 24 338 2.0 2.0 0.00 0.00 0.00 45 1041.0
20181117040124 24 337 2.0 2.0 0.00 0.00 0.00 45 1040.0
20181117040023 24 337 2.0 2.0 0.00 0.00 0.00 45 1040.0
20181117035923 24 337 1.0 2.0 0.00 0.00 0.00 44 1040.0
20181117035823 24 337 1.0 2.0 0.00 0.00 0.00 44 1040.0
20181117035723 24 337 1.0 2.0 0.00 0.00 0.00 44 1040.0
20181117035623 24 337 1.0 2.0 0.00 0.00 0.00 44 1040.0
20181117035523 24 337 1.0 2.0 0.00 0.00 0.00 44 1040.0
20181117035423 24 337 1.0 2.0 0.00 0.00 0.00 44 1040.0
20181117035323 24 337 1.0 2.0 0.00 0.00 0.00 44 1040.0
20181117035223 24 336 1.0 2.0 0.00 0.00 0.00 44 1040.0
20181117035123 24 332 1.0 2.0 0.00 0.00 0.00 44 1040.0
20181117035024 24 335 0.0 2.0 0.00 0.00 0.00 44 1040.0
20181117034923 24 338 1.0 3.0 0.00 0.00 0.00 44 1040.0
20181117034823 24 342 1.0 3.0 0.00 0.00 0.00 44 1040.0
20181117034723 24 345 1.0 3.0 0.00 0.00 0.00 44 1040.0
20181117034623 24 347 1.0 3.0 0.00 0.00 0.00 44 1041.0
20181117034523 24 348 1.0 3.0 0.00 0.00 0.00 44 1041.0
20181117034423 24 350 2.0 3.0 0.00 0.00 0.00 44 1041.0
20181117034323 24 353 1.0 3.0 0.00 0.00 0.00 44 1041.0
20181117034223 24 356 1.0 3.0 0.00 0.00 0.00 44 1041.0
20181117034123 24 359 2.0 3.0 0.00 0.00 0.00 44 1041.0
20181117034023 24 360 2.0 3.0 0.00 0.00 0.00 44 1041.0
20181117033923 24 360 2.0 3.0 0.00 0.00 0.00 44 1041.0
20181117033824 24 360 2.0 3.0 0.00 0.00 0.00 44 1041.0
20181117033722 24 360 2.0 3.0 0.00 0.00 0.00 44 1041.0
20181117033623 24 360 2.0 3.0 0.00 0.00 0.00 44 1041.0
20181117033523 25 360 2.0 3.0 0.00 0.00 0.00 44 1041.0
20181117033423 25 360 2.0 3.0 0.00 0.00 0.00 44 1041.0
20181117033323 25 360 2.0 3.0 0.00 0.00 0.00 44 1041.0
20181117033223 25 360 2.0 3.0 0.00 0.00 0.00 44 1041.0
20181117033123 25 360 2.0 2.0 0.00 0.00 0.00 44 1041.0
20181117033023 25 360 1.0 2.0 0.00 0.00 0.00 44 1041.0
20181117032923 25 360 2.0 2.0 0.00 0.00 0.00 44 1041.0
20181117032823 25 357 2.0 2.0 0.00 0.00 0.00 44 1041.0
20181117032724 25 353 2.0 2.0 0.00 0.00 0.00 44 1041.0
20181117032624 25 350 2.0 2.0 0.00 0.00 0.00 44 1041.0
20181117032523 25 346 2.0 2.0 0.00 0.00 0.00 44 1041.0
20181117032423 25 342 2.0 2.0 0.00 0.00 0.00 44 1041.0
20181117032323 25 336 2.0 2.0 0.00 0.00 0.00 44 1041.0
20181117032223 25 332 2.0 2.0 0.00 0.00 0.00 44 1041.0
20181117032123 25 327 2.0 2.0 0.00 0.00 0.00 44 1041.0
20181117032023 25 321 2.0 2.0 0.00 0.00 0.00 44 1041.0
20181117031923 25 314 2.0 2.0 0.00 0.00 0.00 44 1041.0
20181117031823 25 312 1.0 2.0 0.00 0.00 0.00 44 1041.0
20181117031723 25 310 1.0 2.0 0.00 0.00 0.00 44 1041.0
20181117031623 25 310 1.0 2.0 0.00 0.00 0.00 44 1041.0
20181117031524 25 309 1.0 2.0 0.00 0.00 0.00 44 1041.0
20181117031423 25 311 1.0 2.0 0.00 0.00 0.00 43 1041.0
20181117031323 25 312 2.0 2.0 0.00 0.00 0.00 44 1041.0
20181117031223 25 314 1.0 2.0 0.00 0.00 0.00 44 1041.0
20181117031123 25 315 1.0 2.0 0.00 0.00 0.00 44 1041.0
20181117031023 25 318 1.0 2.0 0.00 0.00 0.00 44 1041.0
20181117030924 25 319 1.0 2.0 0.00 0.00 0.00 44 1041.0
20181117030823 25 345 0.0 1.0 0.00 0.00 0.00 44 1041.0
20181117030723 25 360 0.0 1.0 0.00 0.00 0.00 44 1041.0
20181117030623 25 360 0.0 1.0 0.00 0.00 0.00 44 1041.0
20181117030523 25 360 0.0 1.0 0.00 0.00 0.00 44 1041.0
20181117030423 25 360 0.0 1.0 0.00 0.00 0.00 44 1041.0
20181117030323 26 360 0.0 1.0 0.00 0.00 0.00 44 1041.0
20181117030223 26 360 0.0 1.0 0.00 0.00 0.00 43 1041.0
20181117030123 26 360 0.0 1.0 0.00 0.00 0.00 43 1041.0
20181117030027 26 0 0.0 0.0 0.00 0.00 0.00 42 1041.0
20181117025923 26 0 0.0 0.0 0.00 0.00 0.00 42 1041.0
20181117025823 26 0 0.0 0.0 0.00 0.00 0.00 42 1041.0
20181117025724 26 0 0.0 0.0 0.00 0.00 0.00 42 1041.0
20181117025623 26 0 0.0 0.0 0.00 0.00 0.00 41 1041.0
20181117025523 26 0 0.0 0.0 0.00 0.00 0.00 41 1041.0
20181117025423 26 0 0.0 0.0 0.00 0.00 0.00 42 1041.0
20181117025323 26 0 0.0 0.0 0.00 0.00 0.00 42 1041.0
20181117025223 26 0 0.0 0.0 0.00 0.00 0.00 42 1041.0
20181117025123 26 0 0.0 0.0 0.00 0.00 0.00 42 1041.0
20181117025023 26 0 0.0 0.0 0.00 0.00 0.00 42 1041.0
20181117024923 26 0 0.0 0.0 0.00 0.00 0.00 43 1041.0
20181117024824 26 360 0.0 1.0 0.00 0.00 0.00 43 1041.0
20181117024723 26 360 0.0 1.0 0.00 0.00 0.00 43 1041.0
20181117024623 26 360 0.0 1.0 0.00 0.00 0.00 43 1041.0
20181117024524 26 360 0.0 2.0 0.00 0.00 0.00 43 1041.0
20181117024423 26 360 0.0 2.0 0.00 0.00 0.00 43 1041.0
20181117024323 26 360 0.0 2.0 0.00 0.00 0.00 43 1041.0
20181117024223 26 360 0.0 2.0 0.00 0.00 0.00 43 1041.0
20181117024123 26 360 0.0 2.0 0.00 0.00 0.00 43 1041.0
20181117024023 26 360 0.0 2.0 0.00 0.00 0.00 43 1041.0
20181117023923 26 360 0.0 2.0 0.00 0.00 0.00 43 1041.0
20181117023823 26 360 1.0 2.0 0.00 0.00 0.00 43 1041.0
20181117023723 26 360 1.0 2.0 0.00 0.00 0.00 43 1041.0
20181117023623 26 360 1.0 2.0 0.00 0.00 0.00 43 1041.0
20181117023523 26 360 1.0 2.0 0.00 0.00 0.00 43 1041.0
20181117023423 26 360 1.0 2.0 0.00 0.00 0.00 43 1041.0
20181117023323 26 360 1.0 2.0 0.00 0.00 0.00 43 1041.0
20181117023223 26 359 2.0 2.0 0.00 0.00 0.00 43 1041.0
20181117023123 26 357 1.0 2.0 0.00 0.00 0.00 43 1041.0
20181117023023 26 355 1.0 2.0 0.00 0.00 0.00 43 1041.0
20181117022924 26 353 1.0 2.0 0.00 0.00 0.00 43 1041.0
20181117022823 26 350 1.0 2.0 0.00 0.00 0.00 43 1041.0
20181117022723 26 348 2.0 2.0 0.00 0.00 0.00 43 1041.0
20181117022623 26 346 1.0 2.0 0.00 0.00 0.00 43 1041.0
20181117022523 26 344 2.0 2.0 0.00 0.00 0.00 43 1041.0
20181117022423 26 342 1.0 2.0 0.00 0.00 0.00 43 1041.0
20181117022324 26 339 1.0 2.0 0.00 0.00 0.00 43 1041.0
20181117022224 26 335 1.0 2.0 0.00 0.00 0.00 43 1041.0
20181117022123 26 336 2.0 2.0 0.00 0.00 0.00 43 1041.0
20181117022023 26 338 1.0 2.0 0.00 0.00 0.00 43 1041.0
20181117021923 26 340 1.0 2.0 0.00 0.00 0.00 43 1041.0
20181117021823 26 343 2.0 3.0 0.00 0.00 0.00 43 1041.0
20181117021724 26 346 2.0 3.0 0.00 0.00 0.00 43 1041.0
20181117021624 26 351 2.0 3.0 0.00 0.00 0.00 43 1041.0
20181117021523 26 354 2.0 3.0 0.00 0.00 0.00 43 1041.0
20181117021423 26 360 1.0 3.0 0.00 0.00 0.00 43 1041.0
20181117021323 26 5 1.0 3.0 0.00 0.00 0.00 42 1041.0
20181117021223 26 10 1.0 3.0 0.00 0.00 0.00 42 1041.0
20181117021123 26 11 1.0 3.0 0.00 0.00 0.00 42 1041.0
20181117021023 26 13 1.0 3.0 0.00 0.00 0.00 42 1041.0
20181117020923 26 18 2.0 3.0 0.00 0.00 0.00 42 1041.0
20181117020823 26 20 2.0 3.0 0.00 0.00 0.00 42 1041.0
20181117020723 26 20 2.0 3.0 0.00 0.00 0.00 42 1041.0
20181117020623 26 23 2.0 4.0 0.00 0.00 0.00 42 1041.0
20181117020523 26 26 2.0 4.0 0.00 0.00 0.00 42 1041.0
20181117020423 26 27 2.0 4.0 0.00 0.00 0.00 42 1041.0
20181117020323 26 28 1.0 4.0 0.00 0.00 0.00 42 1041.0
20181117020223 26 30 1.0 4.0 0.00 0.00 0.00 42 1041.0
20181117020123 26 30 2.0 4.0 0.00 0.00 0.00 42 1041.0
20181117020023 26 32 2.0 4.0 0.00 0.00 0.00 42 1041.0
20181117015923 26 32 2.0 4.0 0.00 0.00 0.00 42 1041.0
20181117015823 26 35 2.0 4.0 0.00 0.00 0.00 42 1041.0
20181117015723 26 36 3.0 4.0 0.00 0.00 0.00 42 1041.0
20181117015623 26 35 3.0 4.0 0.00 0.00 0.00 42 1041.0
20181117015523 26 34 3.0 4.0 0.00 0.00 0.00 42 1041.0
20181117015423 26 32 3.0 4.0 0.00 0.00 0.00 42 1041.0
20181117015324 26 30 3.0 4.0 0.00 0.00 0.00 42 1041.0
20181117015223 26 28 2.0 4.0 0.00 0.00 0.00 42 1041.0
20181117015123 26 27 2.0 4.0 0.00 0.00 0.00 42 1041.0
20181117015023 26 24 3.0 4.0 0.00 0.00 0.00 42 1041.0
20181117014923 26 23 4.0 5.0 0.00 0.00 0.00 42 1041.0
20181117014823 26 17 2.0 5.0 0.00 0.00 0.00 42 1041.0
20181117014724 26 17 2.0 5.0 0.00 0.00 0.00 42 1041.0
20181117014623 26 17 2.0 5.0 0.00 0.00 0.00 42 1041.0
20181117014523 26 12 2.0 5.0 0.00 0.00 0.00 42 1041.0
20181117014423 26 13 2.0 5.0 0.00 0.00 0.00 42 1041.0
20181117014323 26 18 3.0 5.0 0.00 0.00 0.00 42 1041.0
20181117014223 26 18 2.0 5.0 0.00 0.00 0.00 42 1041.0
20181117014123 26 22 2.0 5.0 0.00 0.00 0.00 42 1041.0
20181117014023 26 23 3.0 5.0 0.00 0.00 0.00 42 1041.0
20181117013923 26 21 2.0 4.0 0.00 0.00 0.00 42 1041.0
20181117013823 26 22 3.0 4.0 0.00 0.00 0.00 42 1041.0
20181117013723 26 23 2.0 5.0 0.00 0.00 0.00 42 1041.0
20181117013623 26 25 3.0 5.0 0.00 0.00 0.00 42 1041.0
20181117013523 26 29 2.0 5.0 0.00 0.00 0.00 42 1041.0
20181117013422 26 30 3.0 5.0 0.00 0.00 0.00 42 1041.0
20181117013323 26 30 3.0 5.0 0.00 0.00 0.00 42 1041.0
20181117013223 26 31 3.0 5.0 0.00 0.00 0.00 42 1041.0
20181117013123 26 30 1.0 5.0 0.00 0.00 0.00 42 1041.0
20181117013023 26 29 2.0 5.0 0.00 0.00 0.00 42 1041.0
20181117012924 26 29 3.0 5.0 0.00 0.00 0.00 42 1041.0
20181117012823 26 29 3.0 5.0 0.00 0.00 0.00 42 1041.0
20181117012723 26 33 3.0 5.0 0.00 0.00 0.00 42 1041.0
20181117012623 26 34 2.0 5.0 0.00 0.00 0.00 42 1041.0
20181117012523 26 34 3.0 5.0 0.00 0.00 0.00 42 1041.0
20181117012423 26 37 2.0 5.0 0.00 0.00 0.00 42 1041.0
20181117012323 26 36 2.0 5.0 0.00 0.00 0.00 42 1041.0
20181117012223 26 41 1.0 5.0 0.00 0.00 0.00 42 1041.0
20181117012123 26 39 2.0 5.0 0.00 0.00 0.00 42 1041.0
20181117012023 26 42 3.0 5.0 0.00 0.00 0.00 42 1041.0
20181117011923 26 42 2.0 5.0 0.00 0.00 0.00 43 1041.0
20181117011823 26 43 4.0 5.0 0.00 0.00 0.00 42 1041.0
20181117011722 26 41 3.0 4.0 0.00 0.00 0.00 42 1041.0
20181117011623 26 39 3.0 4.0 0.00 0.00 0.00 42 1042.1
20181117011523 26 38 2.0 4.0 0.00 0.00 0.00 42 1042.1
20181117011423 26 36 1.0 4.0 0.00 0.00 0.00 42 1042.1
20181117011323 26 36 2.0 4.0 0.00 0.00 0.00 42 1042.1
20181117011224 26 31 2.0 4.0 0.00 0.00 0.00 42 1042.1
20181117011124 26 30 2.0 4.0 0.00 0.00 0.00 42 1042.1
20181117011023 26 26 2.0 4.0 0.00 0.00 0.00 42 1042.1
20181117010923 26 27 2.0 4.0 0.00 0.00 0.00 42 1042.1
20181117010823 26 26 3.0 4.0 0.00 0.00 0.00 43 1042.1
20181117010723 26 25 2.0 4.0 0.00 0.00 0.00 43 1042.1
20181117010623 26 25 3.0 4.0 0.00 0.00 0.00 43 1042.1
20181117010523 26 26 3.0 4.0 0.00 0.00 0.00 43 1042.1
20181117010423 26 26 3.0 4.0 0.00 0.00 0.00 43 1042.1
20181117010323 26 25 3.0 6.0 0.00 0.00 0.00 43 1042.1
20181117010223 26 26 3.0 6.0 0.00 0.00 0.00 43 1042.1
20181117010123 26 27 4.0 6.0 0.00 0.00 0.00 43 1042.1
20181117010024 26 28 2.0 6.0 0.00 0.00 0.00 43 1042.1
20181117005923 26 27 1.0 6.0 0.00 0.00 0.00 43 1042.1
20181117005823 26 25 3.0 6.0 0.00 0.00 0.00 43 1042.1
20181117005723 26 24 3.0 6.0 0.00 0.00 0.00 43 1042.1
20181117005623 26 23 4.0 6.0 0.00 0.00 0.00 43 1042.1
20181117005523 26 26 3.0 6.0 0.00 0.00 0.00 43 1042.1
20181117005423 26 25 4.0 6.0 0.00 0.00 0.00 43 1042.1
20181117005323 26 27 2.0 4.0 0.00 0.00 0.00 43 1042.1
20181117005223 26 27 3.0 4.0 0.00 0.00 0.00 43 1042.1
20181117005123 26 23 2.0 6.0 0.00 0.00 0.00 43 1042.1
20181117005023 26 25 1.0 6.0 0.00 0.00 0.00 43 1042.1
20181117004923 26 27 1.0 6.0 0.00 0.00 0.00 43 1042.1
20181117004823 26 29 3.0 6.0 0.00 0.00 0.00 43 1042.1
20181117004723 26 29 3.0 6.0 0.00 0.00 0.00 43 1042.1
20181117004623 26 30 3.0 6.0 0.00 0.00 0.00 43 1042.1
20181117004523 26 29 3.0 6.0 0.00 0.00 0.00 43 1042.1
20181117004423 26 30 3.0 6.0 0.00 0.00 0.00 43 1042.1
20181117004323 26 29 3.0 6.0 0.00 0.00 0.00 43 1042.1
20181117004223 26 31 4.0 6.0 0.00 0.00 0.00 42 1042.1
20181117004123 26 34 3.0 6.0 0.00 0.00 0.00 42 1042.1
20181117004023 26 33 3.0 6.0 0.00 0.00 0.00 42 1042.1
20181117003923 26 29 2.0 6.0 0.00 0.00 0.00 42 1042.1
20181117003823 26 28 2.0 6.0 0.00 0.00 0.00 42 1042.1
20181117003723 26 29 4.0 6.0 0.00 0.00 0.00 42 1042.1
20181117003623 26 30 3.0 6.0 0.00 0.00 0.00 42 1042.1
20181117003523 26 28 3.0 6.0 0.00 0.00 0.00 42 1042.1
20181117003423 26 30 2.0 6.0 0.00 0.00 0.00 42 1042.1
20181117003323 26 30 3.0 6.0 0.00 0.00 0.00 42 1042.1
20181117003223 26 30 2.0 6.0 0.00 0.00 0.00 43 1042.1
20181117003124 26 29 2.0 6.0 0.00 0.00 0.00 42 1042.1
20181117003023 26 30 3.0 6.0 0.00 0.00 0.00 42 1042.1
20181117002923 26 28 2.0 6.0 0.00 0.00 0.00 42 1042.1
20181117002823 26 28 4.0 6.0 0.00 0.00 0.00 42 1042.1
20181117002723 26 30 4.0 6.0 0.00 0.00 0.00 42 1042.1
20181117002623 26 29 4.0 6.0 0.00 0.00 0.00 42 1042.1
20181117002523 26 27 4.0 6.0 0.00 0.00 0.00 42 1042.1
20181117002422 26 24 4.0 6.0 0.00 0.00 0.00 42 1042.1
20181117002323 26 23 3.0 6.0 0.00 0.00 0.00 42 1042.1
20181117002223 26 22 4.0 6.0 0.00 0.00 0.00 42 1042.1
20181117002123 26 23 4.0 6.0 0.00 0.00 0.00 42 1042.1
20181117002023 26 23 3.0 6.0 0.00 0.00 0.00 42 1042.1
20181117001924 26 26 4.0 6.0 0.00 0.00 0.00 42 1042.1
20181117001823 26 28 3.0 6.0 0.00 0.00 0.00 42 1042.1
20181117001723 26 28 2.0 6.0 0.00 0.00 0.00 42 1042.1
20181117001623 26 28 3.0 6.0 0.00 0.00 0.00 42 1042.1
20181117001523 26 28 4.0 6.0 0.00 0.00 0.00 42 1042.1
20181117001423 26 29 5.0 6.0 0.00 0.00 0.00 42 1042.1
20181117001322 26 32 4.0 6.0 0.00 0.00 0.00 42 1042.1
20181117001223 26 31 3.0 6.0 0.00 0.00 0.00 43 1042.1
20181117001123 26 33 3.0 6.0 0.00 0.00 0.00 42 1042.1
20181117001023 26 29 2.0 6.0 0.00 0.00 0.00 43 1042.1
20181117000923 26 28 3.0 6.0 0.00 0.00 0.00 42 1042.1
20181117000823 26 30 4.0 6.0 0.00 0.00 0.00 42 1042.1
20181117000724 26 29 4.0 6.0 0.00 0.00 0.00 42 1042.1
20181117000623 26 28 3.0 6.0 0.00 0.00 0.00 42 1042.1
20181117000523 26 31 3.0 6.0 0.00 0.00 0.00 43 1042.1
20181117000423 26 30 4.0 6.0 0.00 0.00 0.00 43 1042.1
20181117000323 26 26 3.0 6.0 0.00 0.00 0.00 43 1042.1
20181117000223 26 29 4.0 6.0 0.00 0.00 0.00 43 1042.1
20181117000123 26 29 5.0 6.0 0.00 0.00 0.00 43 1042.1
20181117000023 26 30 4.0 6.0 0.00 0.00 0.00 43 1042.1
20181116235923 26 31 3.0 6.0 0.00 0.00 0.00 43 1042.1
20181116235823 26 29 2.0 6.0 0.00 0.00 0.00 43 1042.1
20181116235723 26 27 3.0 7.0 0.00 0.00 0.00 43 1042.1
20181116235623 26 29 3.0 8.0 0.00 0.00 0.00 43 1042.1
20181116235523 26 26 4.0 8.0 0.00 0.00 0.00 43 1042.1
20181116235423 26 28 4.0 8.0 0.00 0.00 0.00 43 1042.1
20181116235323 26 32 4.0 8.0 0.00 0.00 0.00 43 1042.1
20181116235223 26 31 4.0 9.0 0.00 0.00 0.00 43 1042.1
20181116235123 26 29 4.0 9.0 0.00 0.00 0.00 43 1042.1
20181116235023 26 30 4.0 9.0 0.00 0.00 0.00 43 1042.1
20181116234923 26 29 4.0 9.0 0.00 0.00 0.00 43 1042.1
20181116234823 26 29 5.0 9.0 0.00 0.00 0.00 43 1042.1
20181116234723 26 31 6.0 9.0 0.00 0.00 0.00 43 1042.1
20181116234623 26 32 4.0 9.0 0.00 0.00 0.00 43 1042.1
20181116234523 26 32 6.0 9.0 0.00 0.00 0.00 43 1042.1
20181116234423 26 31 5.0 9.0 0.00 0.00 0.00 43 1042.1
20181116234322 26 28 6.0 9.0 0.00 0.00 0.00 43 1042.1
20181116234223 26 28 6.0 9.0 0.00 0.00 0.00 43 1042.1
20181116234123 26 30 4.0 9.0 0.00 0.00 0.00 43 1042.1
20181116234023 26 30 6.0 9.0 0.00 0.00 0.00 43 1042.1
20181116233923 26 32 5.0 9.0 0.00 0.00 0.00 43 1042.1
20181116233824 26 30 6.0 9.0 0.00 0.00 0.00 43 1042.1
20181116233722 26 31 5.0 8.0 0.00 0.00 0.00 43 1042.1
20181116233623 26 29 4.0 6.0 0.00 0.00 0.00 43 1042.1
20181116233523 26 30 2.0 6.0 0.00 0.00 0.00 43 1042.1
20181116233423 26 29 4.0 6.0 0.00 0.00 0.00 43 1042.1
20181116233323 26 29 3.0 6.0 0.00 0.00 0.00 43 1042.1
20181116233222 26 29 4.0 6.0 0.00 0.00 0.00 43 1042.1
20181116233123 26 29 4.0 6.0 0.00 0.00 0.00 43 1042.1
20181116233023 26 31 4.0 5.0 0.00 0.00 0.00 43 1042.1
20181116232923 26 32 4.0 5.0 0.00 0.00 0.00 43 1042.1
20181116232823 26 35 4.0 5.0 0.00 0.00 0.00 43 1042.1
20181116232723 26 35 3.0 5.0 0.00 0.00 0.00 43 1042.1
20181116232622 26 36 4.0 5.0 0.00 0.00 0.00 43 1042.1
20181116232523 26 38 4.0 5.0 0.00 0.00 0.00 43 1042.1
20181116232423 26 38 3.0 5.0 0.00 0.00 0.00 43 1042.1
20181116232323 26 37 4.0 5.0 0.00 0.00 0.00 43 1042.1
20181116232223 26 37 3.0 5.0 0.00 0.00 0.00 43 1042.1
20181116232123 26 38 3.0 5.0 0.00 0.00 0.00 43 1042.1
20181116232022 26 34 4.0 4.0 0.00 0.00 0.00 43 1042.1
20181116231923 26 34 3.0 4.0 0.00 0.00 0.00 43 1042.1
20181116231823 26 30 3.0 4.0 0.00 0.00 0.00 43 1042.1
20181116231723 26 25 3.0 4.0 0.00 0.00 0.00 43 1042.1
20181116231623 26 24 3.0 4.0 0.00 0.00 0.00 43 1042.1
20181116231523 26 25 3.0 4.0 0.00 0.00 0.00 43 1042.1
20181116231423 26 28 3.0 4.0 0.00 0.00 0.00 43 1042.1
20181116231323 26 30 2.0 4.0 0.00 0.00 0.00 43 1042.1
20181116231223 26 31 3.0 4.0 0.00 0.00 0.00 42 1042.1
20181116231123 26 29 3.0 4.0 0.00 0.00 0.00 42 1042.1
20181116231023 26 29 4.0 4.0 0.00 0.00 0.00 42 1042.1
20181116230924 26 29 3.0 4.0 0.00 0.00 0.00 42 1042.1
20181116230823 26 31 3.0 4.0 0.00 0.00 0.00 42 1042.1
20181116230723 26 34 3.0 4.0 0.00 0.00 0.00 42 1042.1
20181116230623 26 35 3.0 4.0 0.00 0.00 0.00 42 1042.1
20181116230523 26 34 4.0 4.0 0.00 0.00 0.00 42 1042.1
20181116230423 26 34 3.0 4.0 0.00 0.00 0.00 42 1042.1
20181116230323 26 34 3.0 4.0 0.00 0.00 0.00 42 1042.1
20181116230223 26 32 3.0 4.0 0.00 0.00 0.00 42 1042.1
20181116230123 26 32 2.0 4.0 0.00 0.00 0.00 42 1043.1
20181116230023 26 34 4.0 4.0 0.00 0.00 0.00 42 1043.1
20181116225923 26 32 2.0 4.0 0.00 0.00 0.00 42 1043.1
20181116225823 26 32 2.0 4.0 0.00 0.00 0.00 42 1043.1
20181116225722 26 33 2.0 5.0 0.00 0.00 0.00 42 1043.1
20181116225623 26 31 2.0 5.0 0.00 0.00 0.00 42 1043.1
20181116225523 26 31 2.0 5.0 0.00 0.00 0.00 42 1043.1
20181116225423 26 30 2.0 5.0 0.00 0.00 0.00 42 1043.1
20181116225323 26 30 3.0 5.0 0.00 0.00 0.00 42 1043.1
20181116225224 26 30 2.0 5.0 0.00 0.00 0.00 42 1043.1
20181116225122 26 30 2.0 5.0 0.00 0.00 0.00 42 1043.1
20181116225023 27 26 3.0 5.0 0.00 0.00 0.00 42 1043.1
20181116224923 27 26 2.0 5.0 0.00 0.00 0.00 43 1043.1
20181116224823 27 29 4.0 5.0 0.00 0.00 0.00 43 1043.1
20181116224723 27 27 3.0 4.0 0.00 0.00 0.00 43 1043.1
20181116224623 27 26 2.0 3.0 0.00 0.00 0.00 43 1042.1
20181116224522 27 26 2.0 3.0 0.00 0.00 0.00 43 1042.1
20181116224423 27 25 2.0 3.0 0.00 0.00 0.00 43 1042.1
20181116224323 27 21 2.0 3.0 0.00 0.00 0.00 43 1042.1
20181116224223 27 22 2.0 3.0 0.00 0.00 0.00 43 1042.1
20181116224123 27 20 2.0 3.0 0.00 0.00 0.00 43 1042.1
20181116224023 27 20 3.0 3.0 0.00 0.00 0.00 43 1042.1
20181116223923 27 16 2.0 3.0 0.00 0.00 0.00 43 1042.1
20181116223823 27 12 1.0 3.0 0.00 0.00 0.00 43 1042.1
20181116223723 27 14 1.0 3.0 0.00 0.00 0.00 43 1042.1
20181116223623 27 13 1.0 3.0 0.00 0.00 0.00 43 1042.1
20181116223523 27 12 2.0 3.0 0.00 0.00 0.00 43 1042.1
20181116223423 27 13 2.0 3.0 0.00 0.00 0.00 43 1042.1
20181116223322 27 14 1.0 3.0 0.00 0.00 0.00 43 1042.1
20181116223223 27 15 1.0 3.0 0.00 0.00 0.00 43 1042.1
20181116223123 27 14 2.0 3.0 0.00 0.00 0.00 43 1042.1
20181116223023 27 17 2.0 3.0 0.00 0.00 0.00 43 1042.1
20181116222923 27 17 2.0 3.0 0.00 0.00 0.00 43 1042.1
20181116222824 27 15 2.0 3.0 0.00 0.00 0.00 43 1042.1
20181116222723 27 13 1.0 3.0 0.00 0.00 0.00 43 1042.1
20181116222623 27 14 2.0 3.0 0.00 0.00 0.00 42 1042.1
20181116222523 27 13 2.0 3.0 0.00 0.00 0.00 42 1042.1
20181116222423 27 10 2.0 3.0 0.00 0.00 0.00 42 1042.1
20181116222323 27 9 2.0 3.0 0.00 0.00 0.00 42 1042.1
20181116222222 27 5 2.0 3.0 0.00 0.00 0.00 42 1042.1
20181116222123 27 5 2.0 3.0 0.00 0.00 0.00 42 1042.1
20181116222023 27 2 2.0 3.0 0.00 0.00 0.00 42 1042.1
20181116221923 27 2 1.0 3.0 0.00 0.00 0.00 42 1042.1
20181116221823 27 3 0.0 3.0 0.00 0.00 0.00 42 1042.1
20181116221723 27 4 1.0 3.0 0.00 0.00 0.00 42 1042.1
20181116221623 27 6 2.0 3.0 0.00 0.00 0.00 42 1042.1
20181116221523 27 4 2.0 3.0 0.00 0.00 0.00 42 1042.1
20181116221423 27 5 2.0 3.0 0.00 0.00 0.00 42 1042.1
20181116221323 27 7 2.0 3.0 0.00 0.00 0.00 42 1042.1
20181116221223 27 8 2.0 3.0 0.00 0.00 0.00 42 1042.1
20181116221123 27 14 2.0 3.0 0.00 0.00 0.00 42 1042.1
20181116221022 27 15 2.0 3.0 0.00 0.00 0.00 42 1042.1
20181116220923 27 13 1.0 3.0 0.00 0.00 0.00 42 1042.1
20181116220823 27 13 1.0 3.0 0.00 0.00 0.00 42 1042.1
20181116220723 27 11 1.0 3.0 0.00 0.00 0.00 42 1042.1
20181116220623 27 8 2.0 3.0 0.00 0.00 0.00 42 1042.1
20181116220523 27 8 2.0 3.0 0.00 0.00 0.00 42 1042.1
20181116220423 27 8 1.0 3.0 0.00 0.00 0.00 42 1042.1
20181116220323 27 6 1.0 3.0 0.00 0.00 0.00 42 1042.1
20181116220223 27 4 2.0 3.0 0.00 0.00 0.00 42 1042.1
20181116220123 27 4 2.0 3.0 0.00 0.00 0.00 42 1043.1
20181116220023 27 4 2.0 3.0 0.00 0.00 0.00 42 1043.1
20181116215923 27 7 2.0 3.0 0.00 0.00 0.00 42 1043.1
20181116215823 27 9 2.0 3.0 0.00 0.00 0.00 42 1043.1
20181116215723 27 12 1.0 4.0 0.00 0.00 0.00 42 1043.1
20181116215623 27 14 1.0 4.0 0.00 0.00 0.00 42 1043.1
20181116215523 27 18 1.0 4.0 0.00 0.00 0.00 42 1043.1
20181116215423 27 22 1.0 4.0 0.00 0.00 0.00 42 1043.1
20181116215323 27 21 2.0 4.0 0.00 0.00 0.00 42 1043.1
20181116215223 27 24 2.0 5.0 0.00 0.00 0.00 42 1043.1
20181116215123 27 23 1.0 5.0 0.00 0.00 0.00 42 1043.1
20181116215023 27 26 2.0 5.0 0.00 0.00 0.00 42 1043.1
20181116214923 27 28 2.0 5.0 0.00 0.00 0.00 42 1043.1
20181116214823 27 29 3.0 5.0 0.00 0.00 0.00 42 1043.1
20181116214724 27 32 2.0 5.0 0.00 0.00 0.00 42 1043.1
20181116214623 27 32 3.0 5.0 0.00 0.00 0.00 41 1043.1
20181116214523 27 31 2.0 5.0 0.00 0.00 0.00 42 1043.1
20181116214423 27 29 4.0 5.0 0.00 0.00 0.00 42 1043.1
20181116214323 27 29 4.0 5.0 0.00 0.00 0.00 41 1043.1
20181116214223 27 27 4.0 5.0 0.00 0.00 0.00 41 1043.1
20181116214122 27 28 3.0 4.0 0.00 0.00 0.00 41 1043.1
20181116214023 27 23 3.0 4.0 0.00 0.00 0.00 41 1043.1
20181116213923 27 19 3.0 4.0 0.00 0.00 0.00 41 1043.1
20181116213823 27 19 3.0 4.0 0.00 0.00 0.00 41 1043.1
20181116213723 27 17 2.0 4.0 0.00 0.00 0.00 41 1043.1
20181116213624 27 15 3.0 4.0 0.00 0.00 0.00 41 1043.1
20181116213522 27 13 3.0 4.0 0.00 0.00 0.00 41 1043.1
20181116213423 27 13 2.0 4.0 0.00 0.00 0.00 41 1043.1
20181116213323 27 12 2.0 4.0 0.00 0.00 0.00 41 1043.1
20181116213223 27 13 2.0 4.0 0.00 0.00 0.00 41 1043.1
20181116213123 28 13 2.0 4.0 0.00 0.00 0.00 41 1044.1
20181116213023 28 13 3.0 4.0 0.00 0.00 0.00 41 1044.1
20181116212922 28 14 3.0 4.0 0.00 0.00 0.00 41 1044.1
20181116212823 28 11 3.0 4.0 0.00 0.00 0.00 41 1044.1
20181116212723 28 12 4.0 4.0 0.00 0.00 0.00 41 1044.1
20181116212623 27 13 2.0 3.0 0.00 0.00 0.00 41 1044.1
20181116212523 27 16 2.0 3.0 0.00 0.00 0.00 41 1044.1
20181116212423 27 17 2.0 3.0 0.00 0.00 0.00 41 1044.1
20181116212323 27 18 2.0 3.0 0.00 0.00 0.00 41 1044.1
20181116212223 27 19 2.0 4.0 0.00 0.00 0.00 41 1044.1
20181116212123 27 20 1.0 4.0 0.00 0.00 0.00 41 1044.1
20181116212023 27 20 2.0 4.0 0.00 0.00 0.00 41 1044.1
20181116211923 27 21 1.0 4.0 0.00 0.00 0.00 41 1044.1
20181116211823 27 20 3.0 4.0 0.00 0.00 0.00 41 1044.1
20181116211722 27 15 2.0 4.0 0.00 0.00 0.00 41 1044.1
20181116211623 27 14 2.0 4.0 0.00 0.00 0.00 41 1044.1
20181116211523 27 9 2.0 4.0 0.00 0.00 0.00 41 1044.1
20181116211423 27 8 2.0 4.0 0.00 0.00 0.00 41 1044.1
20181116211323 27 7 3.0 4.0 0.00 0.00 0.00 41 1044.1
20181116211223 27 4 2.0 3.0 0.00 0.00 0.00 41 1044.1
20181116211123 27 3 2.0 3.0 0.00 0.00 0.00 41 1044.1
20181116211023 27 1 2.0 4.0 0.00 0.00 0.00 41 1044.1
20181116210923 27 1 2.0 4.0 0.00 0.00 0.00 41 1044.1
20181116210823 27 1 3.0 4.0 0.00 0.00 0.00 41 1044.1
20181116210723 28 1 2.0 4.0 0.00 0.00 0.00 41 1044.1
20181116210623 27 1 2.0 4.0 0.00 0.00 0.00 41 1044.1
20181116210523 27 1 2.0 4.0 0.00 0.00 0.00 41 1044.1
20181116210423 28 1 2.0 4.0 0.00 0.00 0.00 41 1044.1
20181116210323 28 2 3.0 4.0 0.00 0.00 0.00 41 1044.1
20181116210223 28 1 2.0 4.0 0.00 0.00 0.00 41 1044.1
20181116210123 28 1 3.0 4.0 0.00 0.00 0.00 41 1044.1
20181116210022 28 1 2.0 3.0 0.00 0.00 0.00 41 1044.1
20181116205923 28 360 2.0 3.0 0.00 0.00 0.00 41 1044.1
20181116205823 28 360 1.0 3.0 0.00 0.00 0.00 41 1044.1
20181116205723 28 3 2.0 3.0 0.00 0.00 0.00 41 1044.1
20181116205623 28 3 2.0 3.0 0.00 0.00 0.00 41 1044.1
20181116205523 28 8 1.0 4.0 0.00 0.00 0.00 41 1044.1
20181116205422 27 9 1.0 4.0 0.00 0.00 0.00 41 1044.1
20181116205323 27 8 1.0 6.0 0.00 0.00 0.00 41 1044.1
20181116205223 28 9 1.0 6.0 0.00 0.00 0.00 41 1044.1
20181116205123 28 9 2.0 6.0 0.00 0.00 0.00 41 1044.1
20181116205023 27 9 2.0 6.0 0.00 0.00 0.00 41 1044.1
20181116204923 27 10 2.0 6.0 0.00 0.00 0.00 41 1044.1
20181116204822 27 14 2.0 6.0 0.00 0.00 0.00 41 1044.1
20181116204723 27 13 3.0 6.0 0.00 0.00 0.00 41 1044.1
20181116204623 27 12 3.0 6.0 0.00 0.00 0.00 41 1043.1
20181116204523 27 10 3.0 6.0 0.00 0.00 0.00 41 1043.1
20181116204423 27 12 4.0 6.0 0.00 0.00 0.00 41 1043.1
20181116204323 27 11 3.0 4.0 0.00 0.00 0.00 41 1043.1
20181116204222 27 13 2.0 4.0 0.00 0.00 0.00 41 1043.1
20181116204123 27 15 2.0 4.0 0.00 0.00 0.00 41 1043.1
20181116204023 27 17 3.0 4.0 0.00 0.00 0.00 41 1043.1
20181116203923 27 19 3.0 4.0 0.00 0.00 0.00 41 1043.1
20181116203823 27 15 3.0 4.0 0.00 0.00 0.00 41 1043.1
20181116203723 27 14 2.0 6.0 0.00 0.00 0.00 41 1043.1
20181116203623 27 14 3.0 6.0 0.00 0.00 0.00 41 1043.1
20181116203523 27 16 2.0 6.0 0.00 0.00 0.00 41 1043.1
20181116203423 27 17 2.0 6.0 0.00 0.00 0.00 41 1043.1
20181116203323 27 18 2.0 6.0 0.00 0.00 0.00 41 1043.1
20181116203223 27 17 2.0 6.0 0.00 0.00 0.00 41 1043.1
20181116203124 27 16 2.0 6.0 0.00 0.00 0.00 41 1043.1
20181116203023 27 19 3.0 6.0 0.00 0.00 0.00 41 1043.1
20181116202923 27 20 4.0 6.0 0.00 0.00 0.00 41 1043.1
20181116202823 27 21 4.0 6.0 0.00 0.00 0.00 41 1043.1
20181116202723 27 23 3.0 6.0 0.00 0.00 0.00 41 1043.1
20181116202623 27 24 2.0 6.0 0.00 0.00 0.00 41 1043.1
20181116202522 27 22 3.0 6.0 0.00 0.00 0.00 41 1043.1
20181116202423 27 20 3.0 6.0 0.00 0.00 0.00 41 1043.1
20181116202323 27 23 4.0 6.0 0.00 0.00 0.00 41 1043.1
20181116202223 27 24 4.0 6.0 0.00 0.00 0.00 41 1043.1
20181116202123 27 27 4.0 6.0 0.00 0.00 0.00 41 1043.1
20181116202023 27 23 3.0 6.0 0.00 0.00 0.00 41 1043.1
20181116201922 27 19 3.0 6.0 0.00 0.00 0.00 41 1043.1
20181116201823 27 22 3.0 6.0 0.00 0.00 0.00 41 1043.1
20181116201723 27 21 3.0 6.0 0.00 0.00 0.00 41 1043.1
20181116201623 27 23 3.0 6.0 0.00 0.00 0.00 41 1044.1
20181116201523 27 23 4.0 6.0 0.00 0.00 0.00 41 1044.1
20181116201423 27 24 4.0 6.0 0.00 0.00 0.00 41 1044.1
20181116201322 27 21 4.0 5.0 0.00 0.00 0.00 41 1044.1
20181116201223 27 20 4.0 5.0 0.00 0.00 0.00 41 1044.1
20181116201123 27 19 3.0 5.0 0.00 0.00 0.00 41 1044.1
20181116201023 27 22 3.0 5.0 0.00 0.00 0.00 41 1044.1
20181116200923 27 24 3.0 5.0 0.00 0.00 0.00 41 1044.1
20181116200823 27 23 2.0 6.0 0.00 0.00 0.00 41 1044.1
20181116200722 27 25 4.0 6.0 0.00 0.00 0.00 41 1044.1
20181116200623 27 23 3.0 6.0 0.00 0.00 0.00 41 1044.1
20181116200523 27 26 3.0 6.0 0.00 0.00 0.00 41 1044.1
20181116200423 27 26 4.0 6.0 0.00 0.00 0.00 41 1044.1
20181116200323 27 26 4.0 6.0 0.00 0.00 0.00 41 1044.1
20181116200223 27 30 4.0 6.0 0.00 0.00 0.00 41 1044.1
20181116200128 27 31 2.0 6.0 0.00 0.00 0.00 41 1044.1
20181116200023 27 31 2.0 6.0 0.00 0.00 0.00 41 1044.1
20181116195923 27 29 4.0 6.0 0.00 0.00 0.00 41 1044.1
20181116195823 27 30 4.0 6.0 0.00 0.00 0.00 41 1044.1
20181116195723 27 28 4.0 6.0 0.00 0.00 0.00 41 1044.1
20181116195623 27 29 4.0 6.0 0.00 0.00 0.00 41 1044.1
20181116195523 27 28 4.0 6.0 0.00 0.00 0.00 41 1044.1
20181116195423 27 27 5.0 6.0 0.00 0.00 0.00 41 1044.1
20181116195323 27 27 4.0 6.0 0.00 0.00 0.00 41 1044.1
20181116195223 27 25 4.0 6.0 0.00 0.00 0.00 41 1044.1
20181116195123 27 23 4.0 6.0 0.00 0.00 0.00 41 1044.1
20181116195022 27 23 4.0 6.0 0.00 0.00 0.00 41 1044.1
20181116194923 27 24 5.0 6.0 0.00 0.00 0.00 41 1044.1
20181116194823 27 24 3.0 6.0 0.00 0.00 0.00 41 1044.1
20181116194723 27 26 2.0 6.0 0.00 0.00 0.00 41 1044.1
20181116194623 27 23 2.0 6.0 0.00 0.00 0.00 41 1044.1
20181116194523 27 24 3.0 6.0 0.00 0.00 0.00 41 1044.1
20181116194422 27 25 3.0 6.0 0.00 0.00 0.00 41 1044.1
20181116194323 27 27 4.0 6.0 0.00 0.00 0.00 41 1044.1
20181116194223 27 25 3.0 6.0 0.00 0.00 0.00 41 1044.1
20181116194123 27 22 4.0 6.0 0.00 0.00 0.00 41 1044.1
20181116194023 27 23 4.0 6.0 0.00 0.00 0.00 41 1044.1
20181116193923 27 26 3.0 6.0 0.00 0.00 0.00 41 1044.1
20181116193822 27 26 3.0 6.0 0.00 0.00 0.00 41 1044.1
20181116193723 27 25 2.0 6.0 0.00 0.00 0.00 41 1044.1
20181116193623 27 28 3.0 6.0 0.00 0.00 0.00 41 1044.1
20181116193523 27 27 3.0 6.0 0.00 0.00 0.00 41 1044.1
20181116193423 27 26 4.0 6.0 0.00 0.00 0.00 41 1044.1
20181116193323 27 21 2.0 6.0 0.00 0.00 0.00 41 1044.1
20181116193223 27 26 3.0 6.0 0.00 0.00 0.00 41 1044.1
20181116193123 28 28 4.0 6.0 0.00 0.00 0.00 41 1044.1
20181116193023 28 29 3.0 6.0 0.00 0.00 0.00 41 1044.1
20181116192923 27 29 4.0 6.0 0.00 0.00 0.00 41 1044.1
20181116192823 28 28 4.0 6.0 0.00 0.00 0.00 41 1044.1
20181116192723 28 29 4.0 6.0 0.00 0.00 0.00 41 1044.1
20181116192623 28 30 4.0 6.0 0.00 0.00 0.00 41 1044.1
20181116192523 28 32 3.0 6.0 0.00 0.00 0.00 41 1044.1
20181116192423 28 32 4.0 6.0 0.00 0.00 0.00 41 1044.1
20181116192323 28 38 4.0 6.0 0.00 0.00 0.00 41 1044.1
20181116192223 28 35 4.0 7.0 0.00 0.00 0.00 41 1044.1
20181116192124 28 34 3.0 7.0 0.00 0.00 0.00 41 1044.1
20181116192022 28 33 4.0 7.0 0.00 0.00 0.00 41 1044.1
20181116191923 28 32 3.0 7.0 0.00 0.00 0.00 41 1044.1
20181116191823 28 31 4.0 7.0 0.00 0.00 0.00 41 1044.1
20181116191723 28 32 4.0 7.0 0.00 0.00 0.00 41 1044.1
20181116191623 28 31 5.0 7.0 0.00 0.00 0.00 41 1044.1
20181116191523 28 29 3.0 7.0 0.00 0.00 0.00 41 1044.1
20181116191423 28 31 5.0 7.0 0.00 0.00 0.00 41 1044.1
20181116191323 28 30 5.0 7.0 0.00 0.00 0.00 41 1044.1
20181116191223 28 30 5.0 6.0 0.00 0.00 0.00 41 1044.1
20181116191123 28 31 5.0 6.0 0.00 0.00 0.00 41 1044.1
20181116191023 28 31 3.0 6.0 0.00 0.00 0.00 41 1044.1
20181116190922 28 30 3.0 6.0 0.00 0.00 0.00 41 1044.1
20181116190823 28 34 4.0 6.0 0.00 0.00 0.00 41 1044.1
20181116190723 28 30 5.0 6.0 0.00 0.00 0.00 41 1044.1
20181116190623 28 28 5.0 6.0 0.00 0.00 0.00 41 1044.1
20181116190523 28 29 4.0 5.0 0.00 0.00 0.00 41 1044.1
20181116190423 28 26 2.0 5.0 0.00 0.00 0.00 41 1044.1
20181116190322 28 24 3.0 5.0 0.00 0.00 0.00 41 1044.1
20181116190222 28 25 4.0 5.0 0.00 0.00 0.00 41 1044.1
20181116190123 28 26 3.0 5.0 0.00 0.00 0.00 41 1044.1
20181116190023 28 23 1.0 5.0 0.00 0.00 0.00 41 1044.1
20181116185923 28 24 2.0 5.0 0.00 0.00 0.00 41 1044.1
20181116185823 28 23 2.0 5.0 0.00 0.00 0.00 41 1044.1
20181116185723 28 25 3.0 5.0 0.00 0.00 0.00 41 1044.1
20181116185623 28 24 3.0 5.0 0.00 0.00 0.00 41 1044.1
20181116185523 28 21 3.0 5.0 0.00 0.00 0.00 41 1044.1
20181116185423 28 21 3.0 5.0 0.00 0.00 0.00 41 1044.1
20181116185323 28 22 3.0 5.0 0.00 0.00 0.00 41 1044.1
20181116185223 28 22 3.0 5.0 0.00 0.00 0.00 41 1044.1
20181116185122 28 21 3.0 5.0 0.00 0.00 0.00 41 1044.1
20181116185023 28 21 3.0 5.0 0.00 0.00 0.00 41 1044.1
20181116184923 28 18 2.0 5.0 0.00 0.00 0.00 41 1044.1
20181116184823 28 17 2.0 6.0 0.00 0.00 0.00 41 1044.1
20181116184723 28 16 3.0 6.0 0.00 0.00 0.00 41 1044.1
20181116184623 28 16 4.0 6.0 0.00 0.00 0.00 41 1044.1
20181116184522 28 16 3.0 6.0 0.00 0.00 0.00 41 1044.1
20181116184423 28 19 2.0 6.0 0.00 0.00 0.00 41 1044.1
20181116184323 28 20 3.0 6.0 0.00 0.00 0.00 41 1044.1
20181116184223 28 22 3.0 6.0 0.00 0.00 0.00 41 1044.1
20181116184123 28 22 3.0 6.0 0.00 0.00 0.00 41 1044.1
20181116184023 28 23 3.0 6.0 0.00 0.00 0.00 41 1044.1
20181116183922 28 26 4.0 6.0 0.00 0.00 0.00 41 1044.1
20181116183823 29 27 2.0 6.0 0.00 0.00 0.00 41 1044.1
20181116183723 29 28 4.0 6.0 0.00 0.00 0.00 41 1044.1
20181116183623 29 30 3.0 6.0 0.00 0.00 0.00 41 1044.1
20181116183523 29 32 6.0 6.0 0.00 0.00 0.00 41 1044.1
20181116183422 29 29 4.0 6.0 0.00 0.00 0.00 41 1044.1
20181116183323 29 28 4.0 5.0 0.00 0.00 0.00 41 1044.1
20181116183223 29 25 3.0 5.0 0.00 0.00 0.00 41 1044.1
20181116183123 29 25 3.0 5.0 0.00 0.00 0.00 41 1044.1
20181116183023 29 26 3.0 5.0 0.00 0.00 0.00 41 1044.1
20181116182923 29 25 3.0 5.0 0.00 0.00 0.00 41 1044.1
20181116182822 29 23 3.0 5.0 0.00 0.00 0.00 41 1044.1
20181116182722 29 24 3.0 5.0 0.00 0.00 0.00 41 1044.1
20181116182623 29 26 4.0 5.0 0.00 0.00 0.00 41 1044.1
20181116182523 29 23 3.0 5.0 0.00 0.00 0.00 41 1044.1
20181116182423 29 25 2.0 5.0 0.00 0.00 0.00 41 1044.1
20181116182323 29 27 3.0 5.0 0.00 0.00 0.00 41 1044.1
20181116182222 29 28 4.0 5.0 0.00 0.00 0.00 41 1044.1
20181116182123 29 30 3.0 5.0 0.00 0.00 0.00 41 1044.1
20181116182023 29 30 3.0 5.0 0.00 0.00 0.00 41 1044.1
20181116181923 29 28 3.0 5.0 0.00 0.00 0.00 41 1044.1
20181116181823 29 30 2.0 5.0 0.00 0.00 0.00 41 1044.1
20181116181723 29 31 3.0 5.0 0.00 0.00 0.00 41 1044.1
20181116181623 29 36 3.0 5.0 0.00 0.00 0.00 41 1043.1
20181116181523 29 38 2.0 5.0 0.00 0.00 0.00 41 1043.1
20181116181423 29 36 3.0 5.0 0.00 0.00 0.00 41 1043.1
20181116181323 29 35 3.0 5.0 0.00 0.00 0.00 41 1043.1
20181116181224 29 35 4.0 5.0 0.00 0.00 0.00 41 1043.1
20181116181123 29 34 2.0 5.0 0.00 0.00 0.00 41 1043.1
20181116181022 29 34 3.0 4.0 0.00 0.00 0.00 41 1043.1
20181116180923 29 37 3.0 4.0 0.00 0.00 0.00 41 1043.1
20181116180823 29 40 1.0 4.0 0.00 0.00 0.00 41 1043.1
20181116180723 29 38 3.0 4.0 0.00 0.00 0.00 41 1043.1
20181116180623 29 31 2.0 4.0 0.00 0.00 0.00 41 1043.1
20181116180523 29 27 3.0 4.0 0.00 0.00 0.00 41 1043.1
20181116180423 29 29 1.0 4.0 0.00 0.00 0.00 41 1043.1
20181116180323 29 28 1.0 4.0 0.00 0.00 0.00 41 1043.1
20181116180223 29 27 2.0 4.0 0.00 0.00 0.00 41 1043.1
20181116180123 28 25 3.0 4.0 0.00 0.00 0.00 41 1044.1
20181116180023 28 24 3.0 5.0 0.00 0.00 0.00 41 1044.1
20181116175924 28 25 3.0 5.0 0.00 0.00 0.00 41 1044.1
20181116175822 28 25 2.0 5.0 0.00 0.00 0.00 41 1044.1
20181116175723 28 25 3.0 5.0 0.00 0.00 0.00 41 1044.1
20181116175623 28 27 4.0 5.0 0.00 0.00 0.00 41 1044.1
20181116175523 28 27 2.0 5.0 0.00 0.00 0.00 41 1044.1
20181116175423 28 24 2.0 5.0 0.00 0.00 0.00 41 1044.1
20181116175322 28 26 2.0 5.0 0.00 0.00 0.00 41 1044.1
20181116175223 28 26 3.0 6.0 0.00 0.00 0.00 41 1044.1
20181116175123 28 26 3.0 6.0 0.00 0.00 0.00 41 1044.1
20181116175023 28 23 3.0 6.0 0.00 0.00 0.00 41 1044.1
20181116174923 28 20 4.0 6.0 0.00 0.00 0.00 41 1044.1
20181116174823 28 19 3.0 6.0 0.00 0.00 0.00 41 1044.1
20181116174722 28 21 4.0 6.0 0.00 0.00 0.00 41 1044.1
20181116174624 28 20 3.0 6.0 0.00 0.00 0.00 41 1044.1
20181116174523 28 18 4.0 6.0 0.00 0.00 0.00 41 1044.1
20181116174423 28 19 3.0 6.0 0.00 0.00 0.00 41 1044.1
20181116174323 28 20 4.0 6.0 0.00 0.00 0.00 41 1044.1
20181116174223 28 20 3.0 5.0 0.00 0.00 0.00 41 1044.1
20181116174122 28 18 4.0 5.0 0.00 0.00 0.00 41 1044.1
20181116174023 28 21 4.0 6.0 0.00 0.00 0.00 41 1044.1
20181116173923 28 24 3.0 6.0 0.00 0.00 0.00 41 1044.1
20181116173823 28 22 3.0 6.0 0.00 0.00 0.00 41 1044.1
20181116173723 28 21 3.0 6.0 0.00 0.00 0.00 41 1044.1
20181116173623 28 23 2.0 6.0 0.00 0.00 0.00 41 1044.1
20181116173522 28 22 3.0 6.0 0.00 0.00 0.00 41 1044.1
20181116173423 28 22 4.0 6.0 0.00 0.00 0.00 41 1044.1
20181116173323 28 23 3.0 6.0 0.00 0.00 0.00 41 1044.1
20181116173223 28 24 3.0 6.0 0.00 0.00 0.00 41 1044.1
20181116173123 28 25 5.0 6.0 0.00 0.00 0.00 41 1043.1
20181116173023 28 26 4.0 6.0 0.00 0.00 0.00 41 1043.1
20181116172922 28 29 3.0 6.0 0.00 0.00 0.00 41 1043.1
20181116172823 28 28 4.0 6.0 0.00 0.00 0.00 41 1043.1
20181116172723 28 23 4.0 6.0 0.00 0.00 0.00 41 1043.1
20181116172623 28 20 4.0 6.0 0.00 0.00 0.00 41 1043.1
20181116172523 28 19 3.0 5.0 0.00 0.00 0.00 41 1043.1
20181116172423 28 20 4.0 5.0 0.00 0.00 0.00 41 1043.1
20181116172322 28 16 3.0 6.0 0.00 0.00 0.00 41 1043.1
20181116172223 28 12 3.0 6.0 0.00 0.00 0.00 41 1043.1
20181116172123 28 11 4.0 6.0 0.00 0.00 0.00 41 1043.1
20181116172023 28 11 4.0 6.0 0.00 0.00 0.00 41 1043.1
20181116171923 28 8 4.0 6.0 0.00 0.00 0.00 41 1043.1
20181116171822 28 7 4.0 6.0 0.00 0.00 0.00 41 1043.1
20181116171722 28 9 3.0 6.0 0.00 0.00 0.00 41 1043.1
20181116171623 28 9 3.0 6.0 0.00 0.00 0.00 41 1044.1
20181116171523 28 11 4.0 6.0 0.00 0.00 0.00 41 1044.1
20181116171423 28 11 6.0 6.0 0.00 0.00 0.00 41 1044.1
20181116171323 28 13 6.0 7.0 0.00 0.00 0.00 41 1044.1
20181116171223 28 15 4.0 7.0 0.00 0.00 0.00 41 1044.1
20181116171123 28 16 3.0 7.0 0.00 0.00 0.00 41 1044.1
20181116171023 28 15 3.0 7.0 0.00 0.00 0.00 41 1044.1
20181116170923 28 15 4.0 7.0 0.00 0.00 0.00 40 1044.1
20181116170823 28 15 5.0 7.0 0.00 0.00 0.00 40 1044.1
20181116170723 28 13 4.0 7.0 0.00 0.00 0.00 40 1044.1
20181116170622 28 15 4.0 7.0 0.00 0.00 0.00 40 1044.1
20181116170523 28 13 5.0 7.0 0.00 0.00 0.00 40 1044.1
20181116170423 28 12 4.0 7.0 0.00 0.00 0.00 40 1044.1
20181116170323 28 12 4.0 6.0 0.00 0.00 0.00 40 1044.1
20181116170223 28 11 4.0 6.0 0.00 0.00 0.00 40 1044.1
20181116170123 28 12 6.0 6.0 0.00 0.00 0.00 40 1044.1
20181116170022 28 11 4.0 6.0 0.00 0.00 0.00 40 1044.1
20181116165922 28 13 4.0 6.0 0.00 0.00 0.00 40 1044.1
20181116165823 28 13 4.0 6.0 0.00 0.00 0.00 40 1044.1
20181116165723 28 14 4.0 6.0 0.00 0.00 0.00 40 1044.1
20181116165623 28 14 4.0 6.0 0.00 0.00 0.00 40 1044.1
20181116165523 28 17 3.0 6.0 0.00 0.00 0.00 40 1044.1
20181116165423 28 17 4.0 6.0 0.00 0.00 0.00 40 1044.1
20181116165323 28 18 4.0 6.0 0.00 0.00 0.00 40 1044.1
20181116165223 28 18 4.0 6.0 0.00 0.00 0.00 40 1044.1
20181116165123 28 20 4.0 5.0 0.00 0.00 0.00 40 1044.1
20181116165023 28 23 3.0 5.0 0.00 0.00 0.00 40 1044.1
20181116164923 29 21 3.0 5.0 0.00 0.00 0.00 40 1044.1
20181116164822 29 22 4.0 5.0 0.00 0.00 0.00 40 1044.1
20181116164722 29 25 2.0 6.0 0.00 0.00 0.00 40 1044.1
20181116164623 29 25 3.0 6.0 0.00 0.00 0.00 40 1044.1
20181116164523 29 24 4.0 6.0 0.00 0.00 0.00 39 1044.1
20181116164423 29 23 3.0 6.0 0.00 0.00 0.00 39 1044.1
20181116164322 29 23 2.0 6.0 0.00 0.00 0.00 39 1044.1
20181116164222 29 23 4.0 6.0 0.00 0.00 0.00 39 1044.1
20181116164123 29 22 3.0 6.0 0.00 0.00 0.00 39 1044.1
20181116164023 29 22 3.0 6.0 0.00 0.00 0.00 39 1044.1
20181116163923 29 23 3.0 6.0 0.00 0.00 0.00 39 1044.1
20181116163823 29 22 4.0 6.0 0.00 0.00 0.00 39 1044.1
20181116163722 29 17 2.0 6.0 0.00 0.00 0.00 39 1044.1
20181116163622 29 18 2.0 6.0 0.00 0.00 0.00 39 1044.1
20181116163522 29 18 3.0 6.0 0.00 0.00 0.00 38 1044.1
20181116163423 29 18 2.0 6.0 0.00 0.00 0.00 38 1044.1
20181116163323 29 16 3.0 6.0 0.00 0.00 0.00 38 1044.1
20181116163223 29 15 3.0 6.0 0.00 0.00 0.00 38 1044.1
20181116163123 29 18 4.0 6.0 0.00 0.00 0.00 38 1044.1
20181116163022 29 17 1.0 4.0 0.00 0.00 0.00 38 1044.1
20181116162923 29 19 2.0 5.0 0.00 0.00 0.00 38 1044.1
20181116162823 29 21 3.0 5.0 0.00 0.00 0.00 37 1044.1
20181116162723 29 22 3.0 5.0 0.00 0.00 0.00 37 1044.1
20181116162624 29 18 2.0 6.0 0.00 0.00 0.00 37 1044.1
20181116162522 29 22 2.0 6.0 0.00 0.00 0.00 37 1044.1
20181116162422 29 22 3.0 6.0 0.00 0.00 0.00 37 1044.1
20181116162323 29 26 3.0 7.0 0.00 0.00 0.00 37 1044.1
20181116162223 29 26 3.0 7.0 0.00 0.00 0.00 37 1044.1
20181116162123 29 23 3.0 7.0 0.00 0.00 0.00 37 1044.1
20181116162023 29 22 2.0 7.0 0.00 0.00 0.00 37 1044.1
20181116161922 29 23 2.0 7.0 0.00 0.00 0.00 37 1044.1
20181116161823 29 25 3.0 7.0 0.00 0.00 0.00 37 1044.1
20181116161723 29 27 5.0 7.0 0.00 0.00 0.00 37 1044.1
20181116161623 29 31 2.0 7.0 0.00 0.00 0.00 37 1043.1
20181116161523 29 30 4.0 7.0 0.00 0.00 0.00 37 1043.1
20181116161423 29 28 5.0 7.0 0.00 0.00 0.00 37 1043.1
20181116161323 29 25 3.0 7.0 0.00 0.00 0.00 37 1043.1
20181116161223 29 27 3.0 7.0 0.00 0.00 0.00 37 1043.1
20181116161123 29 30 4.0 7.0 0.00 0.00 0.00 37 1043.1
20181116161023 29 31 4.0 7.0 0.00 0.00 0.00 37 1043.1
20181116160923 29 29 3.0 7.0 0.00 0.00 0.00 37 1043.1
20181116160822 29 27 6.0 7.0 0.00 0.00 0.00 36 1043.1
20181116160722 29 27 4.0 6.0 0.00 0.00 0.00 37 1043.1
20181116160623 29 26 5.0 6.0 0.00 0.00 0.00 36 1043.1
20181116160523 29 25 5.0 6.0 0.00 0.00 0.00 36 1043.1
20181116160423 29 24 4.0 6.0 0.00 0.00 0.00 36 1043.1
20181116160323 29 25 3.0 6.0 0.00 0.00 0.00 36 1043.1
20181116160222 29 25 4.0 6.0 0.00 0.00 0.00 36 1043.1
20181116160123 29 25 4.0 6.0 0.00 0.00 0.00 36 1043.1
20181116160023 29 24 3.0 6.0 0.00 0.00 0.00 36 1043.1
20181116155923 29 27 3.0 6.0 0.00 0.00 0.00 36 1043.1
20181116155823 29 24 6.0 6.0 0.00 0.00 0.00 36 1043.1
20181116155723 29 19 5.0 7.0 0.00 0.00 0.00 36 1043.1
20181116155622 29 21 4.0 7.0 0.00 0.00 0.00 36 1043.1
20181116155522 29 16 4.0 7.0 0.00 0.00 0.00 36 1043.1
20181116155423 29 16 3.0 7.0 0.00 0.00 0.00 36 1043.1
20181116155323 29 15 3.0 7.0 0.00 0.00 0.00 36 1043.1
20181116155223 29 17 2.0 7.0 0.00 0.00 0.00 36 1043.1
20181116155123 29 15 2.0 7.0 0.00 0.00 0.00 36 1043.1
20181116155022 29 17 4.0 7.0 0.00 0.00 0.00 36 1043.1
20181116154923 29 17 4.0 7.0 0.00 0.00 0.00 36 1043.1
20181116154823 29 19 3.0 8.0 0.00 0.00 0.00 36 1043.1
20181116154723 29 18 4.0 8.0 0.00 0.00 0.00 36 1043.1
20181116154623 29 18 3.0 8.0 0.00 0.00 0.00 36 1044.1
20181116154523 29 19 3.0 8.0 0.00 0.00 0.00 36 1044.1
20181116154422 29 20 3.0 8.0 0.00 0.00 0.00 35 1044.1
20181116154323 29 21 3.0 8.0 0.00 0.00 0.00 35 1044.1
20181116154223 29 21 3.0 8.0 0.00 0.00 0.00 35 1044.1
20181116154123 29 22 3.0 8.0 0.00 0.00 0.00 36 1044.1
20181116154023 29 21 6.0 8.0 0.00 0.00 0.00 35 1044.1
20181116153923 29 18 5.0 8.0 0.00 0.00 0.00 35 1044.1
20181116153822 29 17 4.0 8.0 0.00 0.00 0.00 35 1044.1
20181116153722 29 20 6.0 8.0 0.00 0.00 0.00 35 1044.1
20181116153623 29 20 3.0 8.0 0.00 0.00 0.00 35 1044.1
20181116153523 29 22 6.0 7.0 0.00 0.00 0.00 35 1044.1
20181116153423 29 22 5.0 6.0 0.00 0.00 0.00 35 1044.1
20181116153323 29 21 5.0 6.0 0.00 0.00 0.00 35 1044.1
20181116153222 29 22 3.0 6.0 0.00 0.00 0.00 35 1044.1
20181116153122 29 22 4.0 6.0 0.00 0.00 0.00 35 1044.1
20181116153023 29 21 3.0 6.0 0.00 0.00 0.00 35 1044.1
20181116152923 29 24 4.0 6.0 0.00 0.00 0.00 34 1044.1
20181116152823 29 26 3.0 6.0 0.00 0.00 0.00 34 1044.1
20181116152722 29 24 4.0 6.0 0.00 0.00 0.00 34 1044.1
20181116152622 29 23 4.0 6.0 0.00 0.00 0.00 34 1044.1
20181116152523 30 21 2.0 6.0 0.00 0.00 0.00 35 1044.1
20181116152423 30 17 3.0 6.0 0.00 0.00 0.00 34 1044.1
20181116152323 30 18 3.0 5.0 0.00 0.00 0.00 34 1044.1
20181116152223 30 19 4.0 5.0 0.00 0.00 0.00 34 1044.1
20181116152122 30 13 3.0 6.0 0.00 0.00 0.00 34 1044.1
20181116152025 30 15 3.0 6.0 0.00 0.00 0.00 34 1044.1
20181116151923 30 15 3.0 6.0 0.00 0.00 0.00 34 1044.1
20181116151823 30 20 2.0 6.0 0.00 0.00 0.00 34 1044.1
20181116151723 30 21 3.0 6.0 0.00 0.00 0.00 34 1044.1
20181116151623 30 22 1.0 6.0 0.00 0.00 0.00 34 1044.1
20181116151522 30 21 3.0 6.0 0.00 0.00 0.00 34 1044.1
20181116151422 30 23 4.0 6.0 0.00 0.00 0.00 34 1044.1
20181116151323 30 21 4.0 6.0 0.00 0.00 0.00 34 1044.1
20181116151223 30 21 3.0 6.0 0.00 0.00 0.00 34 1044.1
20181116151123 30 22 4.0 8.0 0.00 0.00 0.00 34 1044.1
20181116151023 30 22 3.0 8.0 0.00 0.00 0.00 34 1044.1
20181116150922 30 26 5.0 9.0 0.00 0.00 0.00 34 1044.1
20181116150822 30 23 2.0 9.0 0.00 0.00 0.00 34 1044.1
20181116150723 30 23 3.0 9.0 0.00 0.00 0.00 34 1044.1
20181116150623 30 24 3.0 9.0 0.00 0.00 0.00 34 1044.1
20181116150523 30 25 4.0 10.0 0.00 0.00 0.00 34 1044.1
20181116150423 30 27 3.0 10.0 0.00 0.00 0.00 34 1044.1
20181116150322 30 29 5.0 10.0 0.00 0.00 0.00 34 1044.1
20181116150222 30 30 4.0 10.0 0.00 0.00 0.00 34 1044.1
20181116150123 30 31 5.0 10.0 0.00 0.00 0.00 34 1044.1
20181116150023 30 30 6.0 10.0 0.00 0.00 0.00 33 1044.1
20181116145923 30 29 4.0 10.0 0.00 0.00 0.00 33 1044.1
20181116145823 30 30 6.0 10.0 0.00 0.00 0.00 33 1044.1
20181116145722 30 27 4.0 10.0 0.00 0.00 0.00 33 1044.1
20181116145623 30 26 8.0 10.0 0.00 0.00 0.00 33 1044.1
20181116145523 30 24 4.0 10.0 0.00 0.00 0.00 33 1044.1
20181116145423 30 22 6.0 9.0 0.00 0.00 0.00 33 1044.1
20181116145323 30 23 6.0 9.0 0.00 0.00 0.00 33 1044.1
20181116145222 30 24 6.0 9.0 0.00 0.00 0.00 33 1044.1
20181116145122 30 23 5.0 9.0 0.00 0.00 0.00 33 1044.1
20181116145023 30 21 4.0 9.0 0.00 0.00 0.00 33 1044.1
20181116144923 30 18 3.0 9.0 0.00 0.00 0.00 33 1044.1
20181116144823 30 20 6.0 9.0 0.00 0.00 0.00 33 1044.1
20181116144723 30 22 6.0 9.0 0.00 0.00 0.00 33 1044.1
20181116144622 30 19 4.0 9.0 0.00 0.00 0.00 33 1044.1
20181116144522 30 21 2.0 9.0 0.00 0.00 0.00 33 1044.1
20181116144423 30 19 4.0 9.0 0.00 0.00 0.00 33 1044.1
20181116144323 30 21 5.0 11.0 0.00 0.00 0.00 33 1044.1
20181116144223 30 19 3.0 11.0 0.00 0.00 0.00 33 1044.1
20181116144123 30 22 7.0 11.0 0.00 0.00 0.00 33 1044.1
20181116144022 30 22 4.0 11.0 0.00 0.00 0.00 33 1044.1
20181116143924 30 23 5.0 11.0 0.00 0.00 0.00 33 1044.1
20181116143823 30 23 4.0 11.0 0.00 0.00 0.00 33 1044.1
20181116143723 30 25 5.0 11.0 0.00 0.00 0.00 33 1044.1
20181116143623 30 28 4.0 11.0 0.00 0.00 0.00 34 1044.1
20181116143523 30 27 6.0 11.0 0.00 0.00 0.00 34 1044.1
20181116143422 30 30 4.0 11.0 0.00 0.00 0.00 34 1044.1
20181116143323 30 29 4.0 9.0 0.00 0.00 0.00 34 1044.1
20181116143223 30 29 5.0 9.0 0.00 0.00 0.00 34 1044.1
20181116143123 30 28 4.0 9.0 0.00 0.00 0.00 34 1044.1
20181116143023 30 29 6.0 9.0 0.00 0.00 0.00 34 1044.1
20181116142923 31 30 4.0 9.0 0.00 0.00 0.00 34 1044.1
20181116142822 31 28 4.0 9.0 0.00 0.00 0.00 34 1044.1
20181116142722 31 25 5.0 9.0 0.00 0.00 0.00 34 1044.1
20181116142623 31 28 4.0 9.0 0.00 0.00 0.00 34 1044.1
20181116142523 31 28 6.0 9.0 0.00 0.00 0.00 34 1044.1
20181116142423 31 28 6.0 11.0 0.00 0.00 0.00 34 1044.1
20181116142323 31 25 5.0 11.0 0.00 0.00 0.00 34 1044.1
20181116142222 31 25 4.0 11.0 0.00 0.00 0.00 34 1044.1
20181116142123 31 26 6.0 11.0 0.00 0.00 0.00 34 1044.1
20181116142023 31 26 5.0 11.0 0.00 0.00 0.00 34 1044.1
20181116141923 31 25 4.0 11.0 0.00 0.00 0.00 34 1044.1
20181116141823 31 23 7.0 11.0 0.00 0.00 0.00 34 1044.1
20181116141722 31 24 5.0 11.0 0.00 0.00 0.00 34 1044.1
20181116141622 31 26 6.0 11.0 0.00 0.00 0.00 34 1044.1
20181116141523 31 26 7.0 11.0 0.00 0.00 0.00 34 1044.1
20181116141423 31 27 4.0 10.0 0.00 0.00 0.00 34 1044.1
20181116141323 31 25 6.0 10.0 0.00 0.00 0.00 34 1044.1
20181116141223 31 28 6.0 10.0 0.00 0.00 0.00 34 1044.1
20181116141122 31 23 4.0 9.0 0.00 0.00 0.00 34 1044.1
20181116141022 31 26 6.0 9.0 0.00 0.00 0.00 34 1044.1
20181116140923 31 27 4.0 9.0 0.00 0.00 0.00 34 1044.1
20181116140823 31 34 5.0 9.0 0.00 0.00 0.00 34 1044.1
20181116140723 31 34 6.0 9.0 0.00 0.00 0.00 34 1044.1
20181116140623 31 34 7.0 9.0 0.00 0.00 0.00 34 1044.1
20181116140523 31 35 5.0 9.0 0.00 0.00 0.00 34 1044.1
20181116140422 31 33 7.0 9.0 0.00 0.00 0.00 34 1044.1
20181116140323 31 38 6.0 9.0 0.00 0.00 0.00 34 1044.1
20181116140223 31 34 4.0 9.0 0.00 0.00 0.00 34 1044.1
20181116140123 31 38 6.0 9.0 0.00 0.00 0.00 34 1043.1
20181116140023 31 36 5.0 9.0 0.00 0.00 0.00 35 1043.1
20181116135922 31 35 5.0 9.0 0.00 0.00 0.00 35 1043.1
20181116135823 31 32 6.0 9.0 0.00 0.00 0.00 35 1043.1
20181116135723 31 32 6.0 11.0 0.00 0.00 0.00 35 1043.1
20181116135623 31 29 3.0 11.0 0.00 0.00 0.00 35 1043.1
20181116135523 31 29 7.0 11.0 0.00 0.00 0.00 35 1043.1
20181116135423 31 30 7.0 11.0 0.00 0.00 0.00 35 1043.1
20181116135322 31 30 6.0 11.0 0.00 0.00 0.00 36 1043.1
20181116135222 31 32 3.0 11.0 0.00 0.00 0.00 36 1043.1
20181116135123 31 31 4.0 11.0 0.00 0.00 0.00 36 1043.1
20181116135023 31 29 6.0 11.0 0.00 0.00 0.00 36 1043.1
20181116134923 31 27 3.0 11.0 0.00 0.00 0.00 36 1043.1
20181116134823 31 28 7.0 11.0 0.00 0.00 0.00 36 1043.1
20181116134722 31 25 6.0 9.0 0.00 0.00 0.00 36 1043.1
20181116134622 31 25 6.0 9.0 0.00 0.00 0.00 36 1044.1
20181116134522 31 24 6.0 9.0 0.00 0.00 0.00 36 1044.1
20181116134423 31 26 6.0 9.0 0.00 0.00 0.00 36 1044.1
20181116134323 31 20 6.0 9.0 0.00 0.00 0.00 36 1044.1
20181116134223 31 20 6.0 9.0 0.00 0.00 0.00 36 1044.1
20181116134122 31 23 6.0 9.0 0.00 0.00 0.00 36 1044.1
20181116134023 31 26 4.0 9.0 0.00 0.00 0.00 36 1044.1
20181116133923 31 28 6.0 9.0 0.00 0.00 0.00 36 1044.1
20181116133826 31 28 4.0 9.0 0.00 0.00 0.00 36 1044.1
20181116133723 31 31 4.0 9.0 0.00 0.00 0.00 36 1044.1
20181116133622 31 28 4.0 9.0 0.00 0.00 0.00 36 1044.1
20181116133522 31 25 5.0 9.0 0.00 0.00 0.00 36 1044.1
20181116133423 31 23 4.0 9.0 0.00 0.00 0.00 36 1044.1
20181116133323 31 25 6.0 9.0 0.00 0.00 0.00 36 1044.1
20181116133223 31 29 5.0 9.0 0.00 0.00 0.00 36 1044.1
20181116133123 31 27 6.0 9.0 0.00 0.00 0.00 36 1044.1
20181116133022 31 25 6.0 9.0 0.00 0.00 0.00 36 1044.1
20181116132923 31 24 5.0 9.0 0.00 0.00 0.00 36 1044.1
20181116132823 31 22 4.0 7.0 0.00 0.00 0.00 36 1044.1
20181116132723 31 17 4.0 7.0 0.00 0.00 0.00 36 1044.1
20181116132623 31 24 5.0 7.0 0.00 0.00 0.00 36 1044.1
20181116132523 31 30 6.0 11.0 0.00 0.00 0.00 36 1044.1
20181116132422 31 31 4.0 11.0 0.00 0.00 0.00 36 1044.1
20181116132322 31 31 5.0 11.0 0.00 0.00 0.00 36 1044.1
20181116132223 31 28 4.0 11.0 0.00 0.00 0.00 36 1044.1
20181116132123 31 26 4.0 11.0 0.00 0.00 0.00 36 1044.1
20181116132023 31 26 3.0 11.0 0.00 0.00 0.00 36 1044.1
20181116131923 31 27 4.0 11.0 0.00 0.00 0.00 36 1044.1
20181116131823 31 25 5.0 11.0 0.00 0.00 0.00 36 1044.1
20181116131723 31 31 5.0 11.0 0.00 0.00 0.00 36 1044.1
20181116131623 31 29 5.0 11.0 0.00 0.00 0.00 36 1044.1
20181116131524 31 26 6.0 11.0 0.00 0.00 0.00 36 1044.1
20181116131423 31 23 5.0 8.0 0.00 0.00 0.00 36 1044.1
20181116131323 31 26 4.0 7.0 0.00 0.00 0.00 36 1044.1
20181116131222 31 27 4.0 7.0 0.00 0.00 0.00 36 1044.1
20181116131122 31 29 4.0 7.0 0.00 0.00 0.00 36 1044.1
20181116131023 31 30 4.0 7.0 0.00 0.00 0.00 36 1044.1
20181116130923 31 28 5.0 7.0 0.00 0.00 0.00 36 1044.1
20181116130823 31 29 4.0 7.0 0.00 0.00 0.00 36 1044.1
20181116130722 31 28 3.0 7.0 0.00 0.00 0.00 36 1044.1
20181116130622 31 27 4.0 7.0 0.00 0.00 0.00 36 1044.1
20181116130522 31 27 5.0 7.0 0.00 0.00 0.00 36 1044.1
20181116130423 31 28 4.0 7.0 0.00 0.00 0.00 35 1044.1
20181116130323 31 23 4.0 7.0 0.00 0.00 0.00 35 1044.1
20181116130223 31 22 6.0 7.0 0.00 0.00 0.00 35 1044.1
20181116130122 31 19 4.0 8.0 0.00 0.00 0.00 35 1044.1
20181116130022 31 21 4.0 9.0 0.00 0.00 0.00 35 1044.1
20181116125923 31 22 4.0 9.0 0.00 0.00 0.00 35 1044.1
20181116125823 31 23 5.0 9.0 0.00 0.00 0.00 35 1044.1
20181116125723 31 22 5.0 9.0 0.00 0.00 0.00 35 1044.1
20181116125623 31 23 5.0 9.0 0.00 0.00 0.00 35 1044.1
20181116125522 31 21 4.0 9.0 0.00 0.00 0.00 35 1044.1
20181116125422 31 21 4.0 9.0 0.00 0.00 0.00 35 1044.1
20181116125323 31 22 2.0 9.0 0.00 0.00 0.00 35 1044.1
20181116125223 31 22 6.0 9.0 0.00 0.00 0.00 34 1044.1
20181116125123 31 22 7.0 9.0 0.00 0.00 0.00 34 1044.1
20181116125023 31 22 7.0 9.0 0.00 0.00 0.00 34 1044.1
20181116124922 31 21 5.0 9.0 0.00 0.00 0.00 34 1044.1
20181116124823 32 19 6.0 9.0 0.00 0.00 0.00 34 1044.1
20181116124723 32 19 4.0 9.0 0.00 0.00 0.00 34 1044.1
20181116124623 32 21 4.0 9.0 0.00 0.00 0.00 34 1043.1
20181116124523 32 21 6.0 9.0 0.00 0.00 0.00 34 1043.1
20181116124426 32 23 4.0 9.0 0.00 0.00 0.00 34 1043.1
20181116124322 32 24 6.0 9.0 0.00 0.00 0.00 34 1043.1
20181116124222 32 25 6.0 9.0 0.00 0.00 0.00 34 1043.1
20181116124123 32 26 4.0 9.0 0.00 0.00 0.00 34 1043.1
20181116124023 32 27 5.0 9.0 0.00 0.00 0.00 34 1043.1
20181116123923 32 27 5.0 9.0 0.00 0.00 0.00 34 1043.1
20181116123823 32 26 3.0 9.0 0.00 0.00 0.00 34 1043.1
20181116123722 32 24 6.0 9.0 0.00 0.00 0.00 34 1043.1
20181116123622 32 23 6.0 9.0 0.00 0.00 0.00 33 1043.1
20181116123523 32 24 5.0 9.0 0.00 0.00 0.00 33 1043.1
20181116123423 32 24 4.0 8.0 0.00 0.00 0.00 33 1043.1
20181116123323 32 23 4.0 9.0 0.00 0.00 0.00 33 1043.1
20181116123223 32 25 4.0 9.0 0.00 0.00 0.00 33 1043.1
20181116123122 32 24 5.0 9.0 0.00 0.00 0.00 33 1044.1
20181116123024 32 23 5.0 10.0 0.00 0.00 0.00 33 1044.1
20181116122923 32 19 6.0 10.0 0.00 0.00 0.00 33 1044.1
20181116122823 32 20 5.0 10.0 0.00 0.00 0.00 33 1044.1
20181116122723 32 23 4.0 10.0 0.00 0.00 0.00 33 1044.1
20181116122622 32 24 3.0 10.0 0.00 0.00 0.00 33 1044.1
20181116122522 32 23 4.0 10.0 0.00 0.00 0.00 32 1044.1
20181116122422 32 22 5.0 10.0 0.00 0.00 0.00 32 1044.1
20181116122223 32 22 4.0 10.0 0.00 0.00 0.00 32 1044.1
20181116122124 32 20 7.0 10.0 0.00 0.00 0.00 32 1044.1
20181116122022 32 22 5.0 10.0 0.00 0.00 0.00 32 1044.1
20181116121922 32 27 8.0 9.0 0.00 0.00 0.00 32 1044.1
20181116121823 32 25 6.0 9.0 0.00 0.00 0.00 32 1044.1
20181116121723 32 28 4.0 10.0 0.00 0.00 0.00 32 1044.1
20181116121623 32 28 4.0 10.0 0.00 0.00 0.00 32 1044.1
20181116121523 32 25 2.0 10.0 0.00 0.00 0.00 32 1044.1
20181116121422 32 25 5.0 10.0 0.00 0.00 0.00 32 1044.1
20181116121323 32 23 5.0 10.0 0.00 0.00 0.00 31 1044.1
20181116121223 32 26 3.0 10.0 0.00 0.00 0.00 31 1044.1
20181116121123 32 30 3.0 10.0 0.00 0.00 0.00 31 1044.1
20181116121023 32 30 3.0 10.0 0.00 0.00 0.00 31 1044.1
20181116120923 32 29 7.0 10.0 0.00 0.00 0.00 31 1044.1
20181116120822 32 31 3.0 10.0 0.00 0.00 0.00 31 1044.1
20181116120722 32 27 3.0 8.0 0.00 0.00 0.00 31 1044.1
20181116120622 32 28 4.0 8.0 0.00 0.00 0.00 31 1044.1
20181116120523 32 36 6.0 8.0 0.00 0.00 0.00 31 1044.1
20181116120423 32 41 5.0 9.0 0.00 0.00 0.00 31 1044.1
20181116120323 32 43 5.0 10.0 0.00 0.00 0.00 31 1044.1
20181116120222 32 41 3.0 10.0 0.00 0.00 0.00 31 1044.1
20181116120122 32 43 2.0 10.0 0.00 0.00 0.00 31 1044.1
20181116120023 32 43 4.0 10.0 0.00 0.00 0.00 31 1044.1
20181116115923 32 44 3.0 10.0 0.00 0.00 0.00 31 1044.1
20181116115823 32 48 3.0 10.0 0.00 0.00 0.00 31 1044.1
20181116115723 32 51 3.0 10.0 0.00 0.00 0.00 30 1044.1
20181116115622 32 52 6.0 10.0 0.00 0.00 0.00 30 1044.1
20181116115523 32 51 8.0 12.0 0.00 0.00 0.00 30 1044.1
20181116115423 32 52 5.0 12.0 0.00 0.00 0.00 30 1044.1
20181116115323 32 51 6.0 12.0 0.00 0.00 0.00 30 1044.1
20181116115223 32 51 6.0 12.0 0.00 0.00 0.00 30 1044.1
20181116115122 32 50 6.0 12.0 0.00 0.00 0.00 30 1044.1
20181116115022 32 51 7.0 12.0 0.00 0.00 0.00 30 1044.1
20181116114923 32 50 7.0 12.0 0.00 0.00 0.00 30 1044.1
20181116114823 32 48 7.0 12.0 0.00 0.00 0.00 30 1044.1
20181116114723 32 46 6.0 12.0 0.00 0.00 0.00 30 1044.1
20181116114623 32 46 8.0 12.0 0.00 0.00 0.00 30 1044.1
20181116114522 32 49 8.0 12.0 0.00 0.00 0.00 30 1044.1
20181116114422 32 50 8.0 12.0 0.00 0.00 0.00 30 1044.1
20181116114323 32 51 6.0 12.0 0.00 0.00 0.00 30 1044.1
20181116114223 32 52 6.0 12.0 0.00 0.00 0.00 30 1044.1
20181116114123 32 53 5.0 12.0 0.00 0.00 0.00 30 1044.1
20181116114023 32 52 5.0 12.0 0.00 0.00 0.00 30 1044.1
20181116113923 32 54 5.0 12.0 0.00 0.00 0.00 30 1044.1
20181116113822 32 55 4.0 12.0 0.00 0.00 0.00 30 1044.1
20181116113723 32 56 9.0 12.0 0.00 0.00 0.00 30 1044.1
20181116113623 32 56 10.0 12.0 0.00 0.00 0.00 30 1044.1
20181116113523 32 52 9.0 12.0 0.00 0.00 0.00 30 1044.1
20181116113426 32 54 8.0 9.0 0.00 0.00 0.00 31 1044.1
20181116113322 32 55 6.0 9.0 0.00 0.00 0.00 31 1044.1
20181116113222 32 55 9.0 9.0 0.00 0.00 0.00 31 1044.1
20181116113123 32 53 8.0 9.0 0.00 0.00 0.00 31 1044.1
20181116113023 32 49 6.0 8.0 0.00 0.00 0.00 31 1044.1
20181116112923 32 46 6.0 8.0 0.00 0.00 0.00 31 1044.1
20181116112823 32 43 3.0 8.0 0.00 0.00 0.00 31 1044.1
20181116112722 32 38 6.0 8.0 0.00 0.00 0.00 31 1044.1
20181116112622 32 33 4.0 8.0 0.00 0.00 0.00 31 1044.1
20181116112524 32 33 5.0 9.0 0.00 0.00 0.00 31 1044.1
20181116112423 32 24 7.0 11.0 0.00 0.00 0.00 31 1044.1
20181116112323 32 21 4.0 11.0 0.00 0.00 0.00 32 1044.1
20181116112223 32 20 4.0 11.0 0.00 0.00 0.00 32 1044.1
20181116112122 32 20 5.0 11.0 0.00 0.00 0.00 32 1044.1
20181116112022 32 21 6.0 11.0 0.00 0.00 0.00 32 1044.1
20181116111923 32 22 4.0 11.0 0.00 0.00 0.00 32 1044.1
20181116111823 32 20 4.0 11.0 0.00 0.00 0.00 32 1044.1
20181116111723 32 21 6.0 11.0 0.00 0.00 0.00 32 1044.1
20181116111622 32 20 8.0 11.0 0.00 0.00 0.00 32 1044.1
20181116111522 32 21 9.0 11.0 0.00 0.00 0.00 32 1044.1
20181116111422 32 23 6.0 11.0 0.00 0.00 0.00 32 1044.1
20181116111323 32 29 6.0 9.0 0.00 0.00 0.00 32 1044.1